VIR7B EGLL-KLAX

Flight info

Callsign VIR7B
Flight time 10h 33m
Altitude 36000
Route N0481F360 CPT5J CPT DCT DIDZA L9 OKSAW DCT BIBPE DCT BUCGO DCT FELCA DCT NICXI DCT BAKUR DCT VENER/M085F380 DCT 5530N02000W DCT 57N030W DCT 58N040W DCT 58N050W DCT VESMI DCT MOATT/N0490F380 DCT LAKES/N0491F400 DCT KLIPS DCT GRAND DCT GABOV DCT DPR DCT RAP DCT MBW DCT EKR J100 SAKES DCT PROMT Q88 HAKMN ANJLL4
Aircraft A35K/H-SBDE3GHIJ1J2J3J5M1P2RVWXYZ/LB2D1G1

Departure

Time 2026-04-22 09:24
Airport London Heathrow Airport (EGLL)

Arrival

Time 2026-04-22 19:58
Airport Los Angeles International Airport (KLAX)
Time Latitude Longitude Altitude Speed Heading
2026-04-22 08:58 51.47264 -0.46310 93 ft 0 kts 56°
2026-04-22 09:11 51.47258 -0.46323 94 ft 4 kts 56°
2026-04-22 09:11 51.47243 -0.46359 92 ft 4 kts 56°
2026-04-22 09:11 51.47227 -0.46388 93 ft 4 kts 17°
2026-04-22 09:11 51.47204 -0.46385 93 ft 3 kts 326°
2026-04-22 09:12 51.47186 -0.46366 94 ft 4 kts 326°
2026-04-22 09:12 51.47173 -0.46352 93 ft 0 kts 326°
2026-04-22 09:16 51.47175 -0.46353 93 ft 0 kts 324°
2026-04-22 09:16 51.47184 -0.46363 94 ft 3 kts 325°
2026-04-22 09:16 51.47205 -0.46386 93 ft 5 kts 326°
2026-04-22 09:17 51.47230 -0.46432 95 ft 6 kts 296°
2026-04-22 09:17 51.47236 -0.46507 95 ft 8 kts 275°
2026-04-22 09:17 51.47238 -0.46602 95 ft 10 kts 271°
2026-04-22 09:17 51.47238 -0.46717 95 ft 11 kts 270°
2026-04-22 09:18 51.47237 -0.46828 92 ft 8 kts 258°
2026-04-22 09:18 51.47198 -0.46861 96 ft 7 kts 185°
2026-04-22 09:18 51.47141 -0.46864 92 ft 9 kts 180°
2026-04-22 09:18 51.47072 -0.46864 92 ft 11 kts 180°
2026-04-22 09:19 51.46993 -0.46863 92 ft 12 kts 179°
2026-04-22 09:19 51.46902 -0.46862 94 ft 14 kts 179°
2026-04-22 09:19 51.46801 -0.46862 95 ft 15 kts 180°
2026-04-22 09:19 51.46709 -0.46861 95 ft 11 kts 180°
2026-04-22 09:20 51.46660 -0.46903 96 ft 8 kts 245°
2026-04-22 09:20 51.46657 -0.47002 96 ft 10 kts 270°
2026-04-22 09:20 51.46657 -0.47140 95 ft 15 kts 270°
2026-04-22 09:20 51.46656 -0.47314 95 ft 17 kts 270°
2026-04-22 09:21 51.46655 -0.47505 95 ft 16 kts 270°
2026-04-22 09:21 51.46655 -0.47691 94 ft 17 kts 270°
2026-04-22 09:21 51.46654 -0.47886 92 ft 18 kts 269°
2026-04-22 09:21 51.46653 -0.48095 95 ft 17 kts 269°
2026-04-22 09:22 51.46653 -0.48236 92 ft 13 kts 270°
2026-04-22 09:22 51.46652 -0.48388 92 ft 15 kts 270°
2026-04-22 09:22 51.46652 -0.48559 95 ft 15 kts 270°
2026-04-22 09:22 51.46651 -0.48697 92 ft 8 kts 268°
2026-04-22 09:23 51.46618 -0.48758 92 ft 8 kts 202°
2026-04-22 09:23 51.46558 -0.48784 95 ft 10 kts 189°
2026-04-22 09:23 51.46496 -0.48755 97 ft 9 kts 134°
2026-04-22 09:23 51.46479 -0.48672 95 ft 8 kts 93°
2026-04-22 09:24 51.46479 -0.48412 92 ft 51 kts 90°
2026-04-22 09:24 51.46481 -0.47480 92 ft 115 kts 90°
2026-04-22 09:24 51.46486 -0.45911 210 ft 158 kts 89°
2026-04-22 09:24 51.46498 -0.44208 1090 ft 148 kts 87°
2026-04-22 09:25 51.46512 -0.42490 1617 ft 163 kts 90°
2026-04-22 09:25 51.46303 -0.40585 1902 ft 186 kts 107°
2026-04-22 09:25 51.45559 -0.38713 2145 ft 217 kts 131°
2026-04-22 09:25 51.44181 -0.37463 2567 ft 242 kts 160°
2026-04-22 09:26 51.42469 -0.37481 3347 ft 255 kts 190°
2026-04-22 09:26 51.40914 -0.38956 4089 ft 272 kts 222°
2026-04-22 09:26 51.40033 -0.41690 4763 ft 287 kts 256°
2026-04-22 09:26 51.40096 -0.44908 5440 ft 294 kts 280°
2026-04-22 09:27 51.40526 -0.48130 6122 ft 297 kts 282°
2026-04-22 09:27 51.40965 -0.51379 6815 ft 300 kts 281°
2026-04-22 09:27 51.41379 -0.54649 7494 ft 302 kts 281°
2026-04-22 09:27 51.41779 -0.57978 8213 ft 303 kts 280°
2026-04-22 09:28 51.42167 -0.61304 8967 ft 305 kts 280°
2026-04-22 09:28 51.42549 -0.64653 9680 ft 307 kts 280°
2026-04-22 09:28 51.42929 -0.68023 10372 ft 309 kts 280°
2026-04-22 09:28 51.43317 -0.71493 10755 ft 324 kts 280°
2026-04-22 09:29 51.43721 -0.75134 11021 ft 340 kts 280°
2026-04-22 09:29 51.44171 -0.78954 11282 ft 356 kts 281°
2026-04-22 09:29 51.44662 -0.82929 11545 ft 372 kts 281°
2026-04-22 09:29 51.45172 -0.87061 11906 ft 382 kts 281°
2026-04-22 09:30 51.45684 -0.91264 12485 ft 386 kts 280°
2026-04-22 09:30 51.46174 -0.95521 13062 ft 390 kts 280°
2026-04-22 09:30 51.46661 -0.99822 13627 ft 394 kts 280°
2026-04-22 09:30 51.47154 -1.04138 14285 ft 395 kts 280°
2026-04-22 09:31 51.47647 -1.08490 14825 ft 396 kts 280°
2026-04-22 09:31 51.48133 -1.12803 15588 ft 392 kts 280°
2026-04-22 09:31 51.48620 -1.17140 16042 ft 398 kts 281°
2026-04-22 09:31 51.49139 -1.21452 16628 ft 398 kts 284°
2026-04-22 09:32 51.49812 -1.25752 17215 ft 399 kts 287°
2026-04-22 09:32 51.50584 -1.30019 17858 ft 397 kts 289°
2026-04-22 09:32 51.51399 -1.34246 18510 ft 396 kts 289°
2026-04-22 09:32 51.52227 -1.38471 19041 ft 397 kts 289°
2026-04-22 09:33 51.53050 -1.42694 19568 ft 397 kts 289°
2026-04-22 09:33 51.53868 -1.46941 20019 ft 399 kts 288°
2026-04-22 09:33 51.54682 -1.51217 20431 ft 402 kts 288°
2026-04-22 09:33 51.55488 -1.55510 21027 ft 399 kts 289°
2026-04-22 09:34 51.56281 -1.59769 21651 ft 399 kts 288°
2026-04-22 09:34 51.57080 -1.64069 21989 ft 404 kts 288°
2026-04-22 09:34 51.57881 -1.68390 22573 ft 402 kts 288°
2026-04-22 09:35 51.59486 -1.77065 23324 ft 411 kts 288°
2026-04-22 09:35 51.60302 -1.81482 23798 ft 412 kts 288°
2026-04-22 09:35 51.61114 -1.85902 24200 ft 414 kts 287°
2026-04-22 09:35 51.61933 -1.90366 24560 ft 416 kts 287°
2026-04-22 09:36 51.62751 -1.94835 24932 ft 418 kts 287°
2026-04-22 09:36 51.63570 -1.99321 25359 ft 419 kts 287°
2026-04-22 09:36 51.64393 -2.03843 25683 ft 422 kts 287°
2026-04-22 09:36 51.65216 -2.08378 26122 ft 423 kts 287°
2026-04-22 09:37 51.66040 -2.12926 26583 ft 423 kts 287°
2026-04-22 09:37 51.66867 -2.17500 26881 ft 428 kts 287°
2026-04-22 09:37 51.67697 -2.22101 27309 ft 429 kts 287°
2026-04-22 09:37 51.68532 -2.26741 27697 ft 432 kts 287°
2026-04-22 09:38 51.69368 -2.31397 28100 ft 433 kts 287°
2026-04-22 09:38 51.70204 -2.36071 28500 ft 435 kts 287°
2026-04-22 09:38 51.71042 -2.40765 28895 ft 437 kts 287°
2026-04-22 09:38 51.71884 -2.45490 29242 ft 440 kts 286°
2026-04-22 09:39 51.72728 -2.50246 29554 ft 443 kts 286°
2026-04-22 09:39 51.73576 -2.55035 29924 ft 445 kts 286°
2026-04-22 09:39 51.74423 -2.59835 30269 ft 446 kts 286°
2026-04-22 09:39 51.75274 -2.64663 30586 ft 448 kts 286°
2026-04-22 09:40 51.76126 -2.69518 30856 ft 450 kts 286°
2026-04-22 09:40 51.76979 -2.74388 31139 ft 452 kts 286°
2026-04-22 09:40 51.77836 -2.79289 31447 ft 454 kts 286°
2026-04-22 09:40 51.78690 -2.84191 31941 ft 454 kts 286°
2026-04-22 09:41 51.79545 -2.89116 32202 ft 456 kts 286°
2026-04-22 09:41 51.80402 -2.94062 32464 ft 457 kts 285°
2026-04-22 09:41 51.81253 -2.98991 32850 ft 456 kts 285°
2026-04-22 09:41 51.82094 -3.03877 33116 ft 457 kts 285°
2026-04-22 09:42 51.82953 -3.08878 33536 ft 454 kts 285°
2026-04-22 09:42 51.83795 -3.13790 33881 ft 454 kts 285°
2026-04-22 09:42 51.84621 -3.18629 34238 ft 452 kts 285°
2026-04-22 09:42 51.85453 -3.23512 34626 ft 449 kts 285°
2026-04-22 09:43 51.86282 -3.28393 34735 ft 453 kts 285°
2026-04-22 09:43 51.87114 -3.33305 34957 ft 452 kts 285°
2026-04-22 09:43 51.87945 -3.38226 35077 ft 455 kts 285°
2026-04-22 09:43 51.88778 -3.43169 35269 ft 455 kts 284°
2026-04-22 09:44 51.89604 -3.48092 35650 ft 452 kts 284°
2026-04-22 09:44 51.90427 -3.53007 35839 ft 451 kts 284°
2026-04-22 09:44 51.91245 -3.57908 36087 ft 451 kts 284°
2026-04-22 09:44 51.92064 -3.62824 36261 ft 452 kts 284°
2026-04-22 09:45 51.93710 -3.72747 36284 ft 460 kts 284°
2026-04-22 09:45 51.95088 -3.81099 36290 ft 461 kts 284°
2026-04-22 09:46 51.96732 -3.91123 36288 ft 459 kts 284°
2026-04-22 09:46 51.98365 -4.01140 36293 ft 463 kts 284°
2026-04-22 09:47 52.00003 -4.11242 36287 ft 464 kts 284°
2026-04-22 09:47 52.01633 -4.21349 36290 ft 463 kts 284°
2026-04-22 09:48 52.03248 -4.31435 36289 ft 460 kts 284°
2026-04-22 09:48 52.04853 -4.41519 36291 ft 462 kts 284°
2026-04-22 09:49 52.06462 -4.51693 36285 ft 465 kts 283°
2026-04-22 09:49 52.08062 -4.61868 36284 ft 463 kts 283°
2026-04-22 09:50 52.09650 -4.72028 36296 ft 464 kts 283°
2026-04-22 09:50 52.11231 -4.82217 36297 ft 467 kts 283°
2026-04-22 09:51 52.12807 -4.92430 36299 ft 465 kts 282°
2026-04-22 09:51 52.14370 -5.02621 36297 ft 466 kts 282°
2026-04-22 09:52 52.15935 -5.12900 36278 ft 469 kts 282°
2026-04-22 09:52 52.17494 -5.23207 36311 ft 468 kts 282°
2026-04-22 09:53 52.19035 -5.33421 36292 ft 461 kts 282°
2026-04-22 09:53 52.20555 -5.43600 36297 ft 463 kts 282°
2026-04-22 09:54 52.22079 -5.53867 36293 ft 466 kts 281°
2026-04-22 09:54 52.23601 -5.64103 36290 ft 463 kts 283°
2026-04-22 09:55 52.25917 -5.73912 36303 ft 467 kts 292°
2026-04-22 09:55 52.28683 -5.83506 36320 ft 466 kts 294°
2026-04-22 09:56 52.31525 -5.93104 36295 ft 471 kts 294°
2026-04-22 09:56 52.34376 -6.02785 36303 ft 475 kts 294°
2026-04-22 09:57 52.37211 -6.12484 36303 ft 470 kts 294°
2026-04-22 09:57 52.40019 -6.22169 36302 ft 472 kts 294°
2026-04-22 09:58 52.42827 -6.31878 36312 ft 469 kts 292°
2026-04-22 09:58 52.45600 -6.41538 36312 ft 469 kts 293°
2026-04-22 09:59 52.48383 -6.51262 36314 ft 473 kts 293°
2026-04-22 09:59 52.51184 -6.61074 36307 ft 474 kts 293°
2026-04-22 10:00 52.53982 -6.70926 36309 ft 477 kts 291°
2026-04-22 10:00 52.56772 -6.80794 36300 ft 477 kts 292°
2026-04-22 10:01 52.59548 -6.90635 36301 ft 472 kts 293°
2026-04-22 10:01 52.62287 -7.00392 36294 ft 473 kts 292°
2026-04-22 10:02 52.65035 -7.10245 36293 ft 476 kts 291°
2026-04-22 10:02 52.67794 -7.20179 36288 ft 478 kts 291°
2026-04-22 10:03 52.70557 -7.30161 36279 ft 479 kts 291°
2026-04-22 10:03 52.73316 -7.40160 36285 ft 479 kts 292°
2026-04-22 10:04 52.76073 -7.50194 36269 ft 480 kts 292°
2026-04-22 10:04 52.78817 -7.60231 36266 ft 478 kts 291°
2026-04-22 10:05 52.81557 -7.70289 36265 ft 481 kts 291°
2026-04-22 10:05 52.84293 -7.80383 36264 ft 481 kts 291°
2026-04-22 10:06 52.87018 -7.90490 36248 ft 481 kts 292°
2026-04-22 10:06 52.89742 -8.00621 36254 ft 481 kts 290°
2026-04-22 10:07 52.92430 -8.10680 36252 ft 481 kts 291°
2026-04-22 10:07 52.95138 -8.20863 36243 ft 485 kts 291°
2026-04-22 10:08 52.97856 -8.31109 36246 ft 485 kts 291°
2026-04-22 10:08 53.00569 -8.41368 36235 ft 485 kts 290°
2026-04-22 10:09 53.03265 -8.51632 36237 ft 485 kts 290°
2026-04-22 10:09 53.05948 -8.61906 36231 ft 485 kts 291°
2026-04-22 10:10 53.08627 -8.72200 36234 ft 486 kts 291°
2026-04-22 10:10 53.11311 -8.82578 36219 ft 489 kts 291°
2026-04-22 10:11 53.13998 -8.92987 36228 ft 490 kts 290°
2026-04-22 10:11 53.16676 -9.03424 36225 ft 489 kts 290°
2026-04-22 10:12 53.19349 -9.13871 36231 ft 490 kts 289°
2026-04-22 10:12 53.22011 -9.24348 36251 ft 490 kts 290°
2026-04-22 10:13 53.24674 -9.34860 36241 ft 495 kts 290°
2026-04-22 10:13 53.27342 -9.45447 36237 ft 493 kts 291°
2026-04-22 10:14 53.29993 -9.56016 36233 ft 494 kts 289°
2026-04-22 10:14 53.32641 -9.66632 36233 ft 494 kts 290°
2026-04-22 10:15 53.35261 -9.77188 36239 ft 494 kts 290°
2026-04-22 10:15 53.37893 -9.87838 36241 ft 497 kts 290°
2026-04-22 10:16 53.40527 -9.98544 36241 ft 498 kts 290°
2026-04-22 10:16 53.43148 -10.09262 36249 ft 495 kts 290°
2026-04-22 10:17 53.45757 -10.19955 36245 ft 497 kts 290°
2026-04-22 10:17 53.48363 -10.30706 36241 ft 497 kts 289°
2026-04-22 10:18 53.50967 -10.41503 36247 ft 500 kts 290°
2026-04-22 10:18 53.53568 -10.52358 36238 ft 500 kts 290°
2026-04-22 10:19 53.56154 -10.63189 36241 ft 497 kts 290°
2026-04-22 10:19 53.58717 -10.73971 36245 ft 495 kts 289°
2026-04-22 10:20 53.61267 -10.84757 36241 ft 496 kts 290°
2026-04-22 10:20 53.63813 -10.95574 36243 ft 499 kts 289°
2026-04-22 10:21 53.66358 -11.06458 36249 ft 498 kts 290°
2026-04-22 10:21 53.68867 -11.17233 36249 ft 497 kts 290°
2026-04-22 10:22 53.71375 -11.28062 36242 ft 494 kts 289°
2026-04-22 10:22 53.73872 -11.38880 36247 ft 494 kts 290°
2026-04-22 10:23 53.76354 -11.49696 36237 ft 494 kts 289°
2026-04-22 10:23 53.78831 -11.60558 36256 ft 497 kts 290°
2026-04-22 10:24 53.81304 -11.71467 36251 ft 498 kts 290°
2026-04-22 10:24 53.83771 -11.82392 36238 ft 495 kts 290°
2026-04-22 10:25 53.86224 -11.93295 36250 ft 498 kts 289°
2026-04-22 10:25 53.88670 -12.04243 36240 ft 497 kts 288°
2026-04-22 10:26 53.91114 -12.15241 36244 ft 497 kts 289°
2026-04-22 10:26 53.93541 -12.26218 36240 ft 498 kts 288°
2026-04-22 10:27 53.95960 -12.37220 36242 ft 498 kts 289°
2026-04-22 10:27 53.98369 -12.48225 36243 ft 498 kts 289°
2026-04-22 10:28 54.00772 -12.59270 36235 ft 498 kts 288°
2026-04-22 10:28 54.03174 -12.70367 36234 ft 500 kts 288°
2026-04-22 10:29 54.05561 -12.81453 36234 ft 501 kts 288°
2026-04-22 10:29 54.07946 -12.92591 36230 ft 498 kts 288°
2026-04-22 10:30 54.10306 -13.03672 36227 ft 498 kts 288°
2026-04-22 10:30 54.12643 -13.14705 36227 ft 499 kts 288°
2026-04-22 10:31 54.14992 -13.25866 36230 ft 500 kts 288°
2026-04-22 10:31 54.17330 -13.37021 36237 ft 499 kts 289°
2026-04-22 10:32 54.19654 -13.48176 36219 ft 499 kts 288°
2026-04-22 10:32 54.21984 -13.59416 36226 ft 503 kts 288°
2026-04-22 10:33 54.24312 -13.70717 36232 ft 505 kts 288°
2026-04-22 10:33 54.26620 -13.81992 36233 ft 500 kts 287°
2026-04-22 10:34 54.28537 -13.91400 36233 ft 499 kts 288°
2026-04-22 10:34 54.30807 -14.02600 36224 ft 500 kts 287°
2026-04-22 10:35 54.33087 -14.13920 36225 ft 504 kts 287°
2026-04-22 10:35 54.35374 -14.25329 36208 ft 507 kts 287°
2026-04-22 10:36 54.37641 -14.36705 36231 ft 504 kts 288°
2026-04-22 10:36 54.39884 -14.48031 36226 ft 501 kts 288°
2026-04-22 10:37 54.43220 -14.65007 36232 ft 501 kts 288°
2026-04-22 10:38 54.45428 -14.76320 36204 ft 504 kts 288°
2026-04-22 10:38 54.47653 -14.87781 36229 ft 502 kts 288°
2026-04-22 10:39 54.49827 -14.99046 36228 ft 499 kts 288°
2026-04-22 10:39 54.52176 -15.10328 36223 ft 501 kts 290°
2026-04-22 10:40 54.54768 -15.21538 36216 ft 506 kts 291°
2026-04-22 10:40 54.57347 -15.32796 36212 ft 502 kts 290°
2026-04-22 10:41 54.59847 -15.43972 36218 ft 499 kts 290°
2026-04-22 10:41 54.62310 -15.55140 36221 ft 497 kts 290°
2026-04-22 10:42 54.64761 -15.66312 36217 ft 500 kts 290°
2026-04-22 10:42 54.67206 -15.77520 36238 ft 499 kts 289°
2026-04-22 10:43 54.69655 -15.88806 36225 ft 502 kts 290°
2026-04-22 10:43 54.72089 -16.00089 36225 ft 500 kts 289°
2026-04-22 10:44 54.74504 -16.11335 36231 ft 496 kts 289°
2026-04-22 10:44 54.76897 -16.22531 36245 ft 497 kts 289°
2026-04-22 10:45 54.79282 -16.33763 36249 ft 497 kts 289°
2026-04-22 10:45 54.81661 -16.45029 36236 ft 499 kts 289°
2026-04-22 10:46 54.84032 -16.56329 36230 ft 500 kts 289°
2026-04-22 10:46 54.86413 -16.67734 36232 ft 501 kts 289°
2026-04-22 10:47 54.88772 -16.79089 36231 ft 501 kts 289°
2026-04-22 10:47 54.91131 -16.90516 36233 ft 502 kts 289°
2026-04-22 10:48 54.93488 -17.01999 36238 ft 505 kts 289°
2026-04-22 10:48 54.95834 -17.13490 36238 ft 503 kts 289°
2026-04-22 10:49 54.98168 -17.24989 36238 ft 503 kts 289°
2026-04-22 10:49 55.00478 -17.36437 36240 ft 503 kts 289°
2026-04-22 10:50 55.02788 -17.47956 36234 ft 504 kts 289°
2026-04-22 10:50 55.05098 -17.59536 36232 ft 504 kts 288°
2026-04-22 10:51 55.07375 -17.71024 36239 ft 500 kts 288°
2026-04-22 10:51 55.09629 -17.82468 36238 ft 497 kts 288°
2026-04-22 10:52 55.11877 -17.93940 36244 ft 502 kts 288°
2026-04-22 10:52 55.14124 -18.05482 36244 ft 502 kts 288°
2026-04-22 10:53 55.16369 -18.17080 36247 ft 502 kts 288°
2026-04-22 10:53 55.18595 -18.28646 36250 ft 501 kts 288°
2026-04-22 10:54 55.20797 -18.40156 36246 ft 497 kts 288°
2026-04-22 10:54 55.22984 -18.51664 36252 ft 498 kts 288°
2026-04-22 10:55 55.25176 -18.63263 36245 ft 503 kts 288°
2026-04-22 10:55 55.27358 -18.74882 36251 ft 501 kts 287°
2026-04-22 10:56 55.29523 -18.86486 36261 ft 499 kts 288°
2026-04-22 10:56 55.31672 -18.98069 36253 ft 501 kts 287°
2026-04-22 10:57 55.33817 -19.09706 36255 ft 502 kts 287°
2026-04-22 10:57 55.35961 -19.21404 36253 ft 501 kts 287°
2026-04-22 10:58 55.38069 -19.32982 36251 ft 500 kts 287°
2026-04-22 10:58 55.40175 -19.44626 36265 ft 499 kts 287°
2026-04-22 10:59 55.42273 -19.56296 36266 ft 500 kts 287°
2026-04-22 10:59 55.44367 -19.68018 36263 ft 503 kts 287°
2026-04-22 11:00 55.46447 -19.79745 36268 ft 501 kts 287°
2026-04-22 11:00 55.48509 -19.91437 36272 ft 499 kts 287°
2026-04-22 11:01 55.50566 -20.03136 36260 ft 499 kts 287°
2026-04-22 11:01 55.52817 -20.14754 36269 ft 501 kts 289°
2026-04-22 11:02 55.55142 -20.26332 36265 ft 499 kts 289°
2026-04-22 11:02 55.57430 -20.37919 36276 ft 499 kts 288°
2026-04-22 11:03 55.59672 -20.49488 36280 ft 497 kts 288°
2026-04-22 11:03 55.61901 -20.61110 36274 ft 500 kts 288°
2026-04-22 11:04 55.64133 -20.72813 36281 ft 503 kts 288°
2026-04-22 11:04 55.66351 -20.84512 36278 ft 499 kts 288°
2026-04-22 11:05 55.68548 -20.96171 36277 ft 498 kts 288°
2026-04-22 11:05 55.70734 -21.07831 36292 ft 499 kts 287°
2026-04-22 11:06 55.72913 -21.19525 36288 ft 500 kts 287°
2026-04-22 11:06 55.75090 -21.31283 36299 ft 503 kts 287°
2026-04-22 11:07 55.77256 -21.43063 36289 ft 502 kts 287°
2026-04-22 11:07 55.79405 -21.54824 36297 ft 498 kts 287°
2026-04-22 11:08 55.81526 -21.66496 36304 ft 501 kts 287°
2026-04-22 11:08 55.83670 -21.78382 36303 ft 502 kts 287°
2026-04-22 11:09 55.85777 -21.90140 36309 ft 501 kts 286°
2026-04-22 11:09 55.87884 -22.01973 36310 ft 502 kts 287°
2026-04-22 11:10 55.89981 -22.13815 36313 ft 502 kts 286°
2026-04-22 11:10 55.92073 -22.25712 36323 ft 503 kts 286°
2026-04-22 11:11 55.94163 -22.37675 36324 ft 505 kts 286°
2026-04-22 11:11 55.96237 -22.49626 36325 ft 504 kts 286°
2026-04-22 11:12 55.98291 -22.61547 36328 ft 501 kts 286°
2026-04-22 11:12 56.00339 -22.73498 36320 ft 504 kts 285°
2026-04-22 11:13 56.02385 -22.85535 36335 ft 509 kts 285°
2026-04-22 11:13 56.04423 -22.97603 36326 ft 506 kts 285°
2026-04-22 11:14 56.06440 -23.09627 36331 ft 503 kts 286°
2026-04-22 11:14 56.08444 -23.21652 36343 ft 505 kts 286°
2026-04-22 11:15 56.10445 -23.33741 36336 ft 507 kts 285°
2026-04-22 11:15 56.12435 -23.45850 36354 ft 507 kts 285°
2026-04-22 11:16 56.14418 -23.58000 36345 ft 506 kts 285°
2026-04-22 11:16 56.16387 -23.70142 36343 ft 508 kts 285°
2026-04-22 11:17 56.18351 -23.82358 36362 ft 513 kts 285°
2026-04-22 11:17 56.20316 -23.94659 36359 ft 511 kts 285°
2026-04-22 11:18 56.21932 -24.04849 36355 ft 510 kts 285°
2026-04-22 11:18 56.23863 -24.17102 36369 ft 510 kts 285°
2026-04-22 11:19 56.25788 -24.29405 36369 ft 514 kts 285°
2026-04-22 11:19 56.27708 -24.41759 36376 ft 511 kts 285°
2026-04-22 11:20 56.29601 -24.54040 36375 ft 507 kts 285°
2026-04-22 11:20 56.31480 -24.66322 36363 ft 510 kts 285°
2026-04-22 11:21 56.33359 -24.78688 36387 ft 512 kts 285°
2026-04-22 11:21 56.35222 -24.91054 36380 ft 511 kts 285°
2026-04-22 11:22 56.37071 -25.03409 36383 ft 510 kts 284°
2026-04-22 11:22 56.38915 -25.15826 36385 ft 514 kts 284°
2026-04-22 11:23 56.40748 -25.28272 36384 ft 515 kts 284°
2026-04-22 11:23 56.42569 -25.40741 36387 ft 513 kts 285°
2026-04-22 11:24 56.44378 -25.53209 36385 ft 514 kts 285°
2026-04-22 11:24 56.46180 -25.65725 36389 ft 516 kts 285°
2026-04-22 11:25 56.47974 -25.78294 36391 ft 516 kts 285°
2026-04-22 11:25 56.49749 -25.90827 36389 ft 513 kts 285°
2026-04-22 11:26 56.51511 -26.03373 36401 ft 515 kts 284°
2026-04-22 11:26 56.53265 -26.15965 36402 ft 516 kts 284°
2026-04-22 11:27 56.55004 -26.28556 36401 ft 514 kts 285°
2026-04-22 11:27 56.56729 -26.41142 36409 ft 515 kts 285°
2026-04-22 11:28 56.58444 -26.53759 36405 ft 516 kts 285°
2026-04-22 11:28 56.60148 -26.66400 36417 ft 516 kts 285°
2026-04-22 11:29 56.61838 -26.79043 36413 ft 515 kts 285°
2026-04-22 11:29 56.63515 -26.91699 36416 ft 516 kts 285°
2026-04-22 11:30 56.65181 -27.04378 36416 ft 515 kts 285°
2026-04-22 11:30 56.66831 -27.17047 36423 ft 515 kts 285°
2026-04-22 11:31 56.68469 -27.29734 36417 ft 516 kts 285°
2026-04-22 11:31 56.70096 -27.42441 36424 ft 516 kts 285°
2026-04-22 11:32 56.71709 -27.55161 36426 ft 516 kts 285°
2026-04-22 11:32 56.73309 -27.67884 36433 ft 516 kts 285°
2026-04-22 11:33 56.74897 -27.80627 36408 ft 516 kts 285°
2026-04-22 11:33 56.76470 -27.93378 36430 ft 515 kts 285°
2026-04-22 11:34 56.78030 -28.06127 36438 ft 515 kts 285°
2026-04-22 11:34 56.79577 -28.18875 36436 ft 515 kts 285°
2026-04-22 11:35 56.81111 -28.31642 36445 ft 515 kts 285°
2026-04-22 11:35 56.82632 -28.44421 36446 ft 515 kts 285°
2026-04-22 11:36 56.84128 -28.57117 36445 ft 515 kts 285°
2026-04-22 11:36 56.85622 -28.69915 36443 ft 514 kts 285°
2026-04-22 11:37 56.87099 -28.82683 36449 ft 513 kts 285°
2026-04-22 11:37 56.88562 -28.95448 36451 ft 513 kts 285°
2026-04-22 11:38 56.90010 -29.08215 36456 ft 513 kts 285°
2026-04-22 11:38 56.92159 -29.27383 36455 ft 513 kts 284°
2026-04-22 11:39 56.93575 -29.40178 36462 ft 513 kts 284°
2026-04-22 11:39 56.94977 -29.52984 36450 ft 512 kts 285°
2026-04-22 11:40 56.96362 -29.65757 36465 ft 511 kts 285°
2026-04-22 11:40 56.97734 -29.78532 36466 ft 511 kts 285°
2026-04-22 11:41 56.99094 -29.91323 36459 ft 511 kts 285°
2026-04-22 11:41 57.00462 -30.04115 36468 ft 510 kts 287°
2026-04-22 11:42 57.02209 -30.16688 36470 ft 508 kts 290°
2026-04-22 11:42 57.04087 -30.29181 36440 ft 508 kts 291°
2026-04-22 11:43 57.05896 -30.41677 36469 ft 505 kts 290°
2026-04-22 11:43 57.07643 -30.54174 36471 ft 505 kts 290°
2026-04-22 11:44 57.09366 -30.66693 36478 ft 505 kts 289°
2026-04-22 11:44 57.11076 -30.79227 36479 ft 505 kts 289°
2026-04-22 11:45 57.12775 -30.91771 36485 ft 505 kts 289°
2026-04-22 11:45 57.14463 -31.04326 36461 ft 505 kts 289°
2026-04-22 11:46 57.16135 -31.16879 36491 ft 504 kts 289°
2026-04-22 11:46 57.17791 -31.29410 36494 ft 503 kts 289°
2026-04-22 11:47 57.19436 -31.41946 36481 ft 503 kts 289°
2026-04-22 11:47 57.21067 -31.54493 36499 ft 503 kts 289°
2026-04-22 11:48 57.22686 -31.67061 36500 ft 503 kts 289°
2026-04-22 11:48 57.24293 -31.79639 36485 ft 503 kts 289°
2026-04-22 11:49 57.25885 -31.92210 36494 ft 501 kts 289°
2026-04-22 11:49 57.27457 -32.04740 36495 ft 500 kts 288°
2026-04-22 11:50 57.29019 -32.17277 36497 ft 500 kts 288°
2026-04-22 11:50 57.30567 -32.29827 36497 ft 501 kts 288°
2026-04-22 11:51 57.32104 -32.42398 36498 ft 501 kts 288°
2026-04-22 11:51 57.33627 -32.54970 36505 ft 501 kts 288°
2026-04-22 11:52 57.35138 -32.67563 36506 ft 501 kts 288°
2026-04-22 11:52 57.36636 -32.80158 36502 ft 501 kts 288°
2026-04-22 11:53 57.38117 -32.92736 36509 ft 499 kts 288°
2026-04-22 11:53 57.39584 -33.05301 36508 ft 498 kts 288°
2026-04-22 11:54 57.41038 -33.17871 36508 ft 499 kts 287°
2026-04-22 11:54 57.42480 -33.30456 36508 ft 499 kts 287°
2026-04-22 11:55 57.43909 -33.43043 36502 ft 498 kts 287°
2026-04-22 11:55 57.45319 -33.55592 36509 ft 496 kts 287°
2026-04-22 11:56 57.46715 -33.68135 36506 ft 496 kts 287°
2026-04-22 11:56 57.48097 -33.80668 36510 ft 495 kts 286°
2026-04-22 11:57 57.49466 -33.93201 36510 ft 495 kts 286°
2026-04-22 11:57 57.50822 -34.05749 36516 ft 495 kts 286°
2026-04-22 11:58 57.52167 -34.18307 36485 ft 495 kts 285°
2026-04-22 11:58 57.53497 -34.30866 36514 ft 494 kts 285°
2026-04-22 11:59 57.54814 -34.43421 36518 ft 494 kts 285°
2026-04-22 11:59 57.56111 -34.55905 36512 ft 494 kts 285°
2026-04-22 12:00 57.57402 -34.68472 36525 ft 494 kts 285°
2026-04-22 12:00 57.58682 -34.81058 36522 ft 494 kts 285°
2026-04-22 12:01 57.59949 -34.93648 36519 ft 494 kts 285°
2026-04-22 12:01 57.61204 -35.06245 36517 ft 494 kts 284°
2026-04-22 12:02 57.62443 -35.18830 36520 ft 493 kts 284°
2026-04-22 12:02 57.63473 -35.29382 36522 ft 493 kts 284°
2026-04-22 12:03 57.64690 -35.41991 36520 ft 493 kts 284°
2026-04-22 12:03 57.65894 -35.54590 36519 ft 493 kts 284°
2026-04-22 12:04 57.67084 -35.67194 36522 ft 493 kts 284°
2026-04-22 12:04 57.68262 -35.79804 36512 ft 493 kts 283°
2026-04-22 12:05 57.69418 -35.92320 36519 ft 492 kts 283°
2026-04-22 12:05 57.70568 -36.04922 36522 ft 492 kts 283°
2026-04-22 12:06 57.71706 -36.17537 36522 ft 492 kts 283°
2026-04-22 12:06 57.72832 -36.30151 36519 ft 492 kts 283°
2026-04-22 12:07 57.73943 -36.42767 36524 ft 491 kts 283°
2026-04-22 12:07 57.75042 -36.55381 36517 ft 491 kts 282°
2026-04-22 12:08 57.76128 -36.68005 36518 ft 491 kts 282°
2026-04-22 12:08 57.77201 -36.80619 36519 ft 490 kts 282°
2026-04-22 12:09 57.78260 -36.93240 36521 ft 491 kts 282°
2026-04-22 12:09 57.79308 -37.05876 36521 ft 491 kts 282°
2026-04-22 12:10 57.80343 -37.18518 36519 ft 490 kts 282°
2026-04-22 12:10 57.81364 -37.31159 36522 ft 490 kts 282°
2026-04-22 12:11 57.82373 -37.43805 36515 ft 491 kts 282°
2026-04-22 12:11 57.83371 -37.56478 36520 ft 491 kts 282°
2026-04-22 12:12 57.84357 -37.69156 36518 ft 491 kts 282°
2026-04-22 12:12 57.85330 -37.81849 36527 ft 491 kts 282°
2026-04-22 12:13 57.86291 -37.94550 36523 ft 491 kts 282°
2026-04-22 12:13 57.87239 -38.07257 36518 ft 491 kts 282°
2026-04-22 12:14 57.88174 -38.19972 36497 ft 491 kts 282°
2026-04-22 12:14 57.89095 -38.32690 36524 ft 491 kts 282°
2026-04-22 12:15 57.90004 -38.45410 36523 ft 491 kts 282°
2026-04-22 12:15 57.90901 -38.58133 36522 ft 491 kts 282°
2026-04-22 12:16 57.91786 -38.70871 36518 ft 491 kts 282°
2026-04-22 12:16 57.92657 -38.83620 36519 ft 491 kts 282°
2026-04-22 12:17 57.93516 -38.96364 36518 ft 491 kts 282°
2026-04-22 12:17 57.94361 -39.09099 36514 ft 490 kts 281°
2026-04-22 12:18 57.95191 -39.21817 36522 ft 489 kts 281°
2026-04-22 12:18 57.96008 -39.34547 36532 ft 489 kts 281°
2026-04-22 12:19 57.96813 -39.47273 36520 ft 489 kts 281°
2026-04-22 12:19 57.97605 -39.60009 36517 ft 490 kts 281°
2026-04-22 12:20 57.98385 -39.72758 36520 ft 490 kts 281°
2026-04-22 12:20 57.99153 -39.85504 36506 ft 489 kts 279°
2026-04-22 12:21 57.99905 -39.98227 36519 ft 488 kts 279°
2026-04-22 12:21 58.00539 -40.10959 36519 ft 488 kts 277°
2026-04-22 12:22 58.00977 -40.23751 36519 ft 489 kts 277°
2026-04-22 12:22 58.01403 -40.36540 36519 ft 489 kts 277°
2026-04-22 12:23 58.01848 -40.49341 36516 ft 489 kts 277°
2026-04-22 12:23 58.02294 -40.62126 36513 ft 489 kts 277°
2026-04-22 12:24 58.02730 -40.74920 36514 ft 489 kts 277°
2026-04-22 12:24 58.03152 -40.87728 36511 ft 489 kts 277°
2026-04-22 12:25 58.03560 -41.00534 36510 ft 489 kts 277°
2026-04-22 12:25 58.03955 -41.13343 36511 ft 489 kts 276°
2026-04-22 12:26 58.04338 -41.26155 36505 ft 489 kts 276°
2026-04-22 12:26 58.04708 -41.38978 36506 ft 489 kts 276°
2026-04-22 12:27 58.05064 -41.51795 36488 ft 489 kts 276°
2026-04-22 12:27 58.05406 -41.64508 36500 ft 487 kts 275°
2026-04-22 12:28 58.05734 -41.77256 36500 ft 486 kts 275°
2026-04-22 12:28 58.06050 -41.90003 36492 ft 486 kts 275°
2026-04-22 12:29 58.06354 -42.02759 36492 ft 486 kts 275°
2026-04-22 12:29 58.06645 -42.15517 36492 ft 486 kts 275°
2026-04-22 12:30 58.07057 -42.34653 36495 ft 486 kts 275°
2026-04-22 12:31 58.07317 -42.47415 36485 ft 485 kts 274°
2026-04-22 12:31 58.07562 -42.60146 36482 ft 484 kts 274°
2026-04-22 12:32 58.07795 -42.72855 36481 ft 484 kts 274°
2026-04-22 12:32 58.08120 -42.91930 36476 ft 484 kts 274°
2026-04-22 12:33 58.08321 -43.04654 36473 ft 484 kts 274°
2026-04-22 12:33 58.08509 -43.17381 36473 ft 484 kts 274°
2026-04-22 12:34 58.08684 -43.30013 36457 ft 484 kts 273°
2026-04-22 12:34 58.08844 -43.42635 36465 ft 478 kts 273°
2026-04-22 12:35 58.08993 -43.55189 36466 ft 478 kts 273°
2026-04-22 12:35 58.09129 -43.67822 36456 ft 477 kts 272°
2026-04-22 12:36 58.09253 -43.80290 36458 ft 479 kts 273°
2026-04-22 12:36 58.09364 -43.92939 36455 ft 478 kts 272°
2026-04-22 12:37 58.09462 -44.05415 36448 ft 478 kts 272°
2026-04-22 12:37 58.09550 -44.17967 36445 ft 475 kts 271°
2026-04-22 12:38 58.09625 -44.30381 36438 ft 471 kts 271°
2026-04-22 12:38 58.09686 -44.42711 36433 ft 467 kts 271°
2026-04-22 12:39 58.09755 -44.61212 36432 ft 470 kts 271°
2026-04-22 12:40 58.09787 -44.73539 36423 ft 469 kts 270°
2026-04-22 12:40 58.09807 -44.85891 36420 ft 470 kts 270°
2026-04-22 12:41 58.09814 -44.98213 36421 ft 468 kts 270°
2026-04-22 12:41 58.09811 -45.10521 36404 ft 467 kts 268°
2026-04-22 12:42 58.09794 -45.22744 36411 ft 464 kts 269°
2026-04-22 12:42 58.09766 -45.34978 36396 ft 467 kts 269°
2026-04-22 12:43 58.09727 -45.47205 36398 ft 464 kts 268°
2026-04-22 12:43 58.09675 -45.59451 36388 ft 467 kts 268°
2026-04-22 12:44 58.09614 -45.71682 36383 ft 464 kts 268°
2026-04-22 12:44 58.09539 -45.83817 36376 ft 466 kts 268°
2026-04-22 12:45 58.09454 -45.96042 36383 ft 466 kts 267°
2026-04-22 12:45 58.09354 -46.08331 36363 ft 469 kts 267°
2026-04-22 12:46 58.09245 -46.20635 36367 ft 468 kts 267°
2026-04-22 12:46 58.09123 -46.32937 36364 ft 469 kts 267°
2026-04-22 12:47 58.09012 -46.43235 36350 ft 467 kts 266°
2026-04-22 12:47 58.08844 -46.57516 36350 ft 468 kts 266°
2026-04-22 12:48 58.08713 -46.67806 36351 ft 467 kts 266°
2026-04-22 12:48 58.08546 -46.80104 36334 ft 469 kts 266°
2026-04-22 12:49 58.08367 -46.92400 36334 ft 468 kts 266°
2026-04-22 12:49 58.08173 -47.04699 36332 ft 468 kts 265°
2026-04-22 12:50 58.07970 -47.16981 36319 ft 468 kts 265°
2026-04-22 12:50 58.07754 -47.29277 36320 ft 468 kts 265°
2026-04-22 12:51 58.07528 -47.41555 36309 ft 468 kts 265°
2026-04-22 12:51 58.07290 -47.53845 36300 ft 468 kts 265°
2026-04-22 12:52 58.07040 -47.66125 36312 ft 468 kts 264°
2026-04-22 12:52 58.06777 -47.78419 36290 ft 468 kts 264°
2026-04-22 12:53 58.06503 -47.90709 36286 ft 468 kts 264°
2026-04-22 12:53 58.06217 -48.02998 36286 ft 468 kts 264°
2026-04-22 12:54 58.05921 -48.15201 36269 ft 468 kts 264°
2026-04-22 12:54 58.05612 -48.27485 36271 ft 468 kts 264°
2026-04-22 12:55 58.05290 -48.39772 36271 ft 468 kts 264°
2026-04-22 12:55 58.04958 -48.52043 36261 ft 468 kts 262°
2026-04-22 12:56 58.04614 -48.64305 36251 ft 467 kts 262°
2026-04-22 12:56 58.04257 -48.76544 36259 ft 467 kts 262°
2026-04-22 12:57 58.03889 -48.88787 36247 ft 467 kts 262°
2026-04-22 12:57 58.03509 -49.01027 36244 ft 467 kts 262°
2026-04-22 12:58 58.03118 -49.13258 36257 ft 467 kts 262°
2026-04-22 12:58 58.02715 -49.25486 36235 ft 467 kts 262°
2026-04-22 12:59 58.02301 -49.37700 36235 ft 467 kts 261°
2026-04-22 12:59 58.01875 -49.49915 36222 ft 467 kts 261°
2026-04-22 13:00 58.01438 -49.62125 36222 ft 466 kts 261°
2026-04-22 13:00 58.00989 -49.74329 36225 ft 466 kts 261°
2026-04-22 13:01 58.00528 -49.86527 36223 ft 466 kts 261°
2026-04-22 13:01 58.00105 -49.98730 36212 ft 469 kts 264°
2026-04-22 13:02 58.00282 -50.11055 36213 ft 471 kts 267°
2026-04-22 13:02 58.00597 -50.23401 36226 ft 472 kts 266°
2026-04-22 13:03 58.00923 -50.35784 36209 ft 474 kts 266°
2026-04-22 13:03 58.01226 -50.48108 36211 ft 474 kts 266°
2026-04-22 13:04 58.01515 -50.60600 36208 ft 474 kts 266°
2026-04-22 13:04 58.01787 -50.73011 36200 ft 474 kts 266°
2026-04-22 13:05 58.02047 -50.85417 36206 ft 473 kts 266°
2026-04-22 13:05 58.02296 -50.97829 36230 ft 473 kts 265°
2026-04-22 13:06 58.02533 -51.10220 36210 ft 472 kts 265°
2026-04-22 13:06 58.02756 -51.22608 36210 ft 472 kts 265°
2026-04-22 13:07 58.02968 -51.35012 36212 ft 474 kts 265°
2026-04-22 13:07 58.03168 -51.47440 36217 ft 474 kts 265°
2026-04-22 13:08 58.03357 -51.59866 36215 ft 474 kts 265°
2026-04-22 13:08 58.03532 -51.72211 36263 ft 474 kts 264°
2026-04-22 13:09 58.03697 -51.84646 36221 ft 474 kts 264°
2026-04-22 13:09 58.03849 -51.97077 36225 ft 474 kts 264°
2026-04-22 13:10 58.03989 -52.09513 36233 ft 474 kts 264°
2026-04-22 13:10 58.04117 -52.21946 36233 ft 474 kts 264°
2026-04-22 13:11 58.04232 -52.34376 36238 ft 474 kts 263°
2026-04-22 13:11 58.04336 -52.46816 36239 ft 474 kts 263°
2026-04-22 13:12 58.04428 -52.59242 36247 ft 473 kts 262°
2026-04-22 13:12 58.04508 -52.71655 36252 ft 473 kts 262°
2026-04-22 13:13 58.04574 -52.84054 36253 ft 472 kts 262°
2026-04-22 13:13 58.04629 -52.96452 36242 ft 472 kts 262°
2026-04-22 13:14 58.04672 -53.08847 36257 ft 472 kts 262°
2026-04-22 13:14 58.04703 -53.21243 36241 ft 472 kts 262°
2026-04-22 13:15 58.04724 -53.33631 36254 ft 471 kts 260°
2026-04-22 13:15 58.04731 -53.45985 36248 ft 471 kts 260°
2026-04-22 13:16 58.04725 -53.58348 36252 ft 471 kts 260°
2026-04-22 13:16 58.04707 -53.70702 36252 ft 471 kts 260°
2026-04-22 13:17 58.04678 -53.83049 36250 ft 470 kts 260°
2026-04-22 13:17 58.04637 -53.95396 36251 ft 470 kts 260°
2026-04-22 13:18 58.04584 -54.07744 36253 ft 470 kts 259°
2026-04-22 13:18 58.04519 -54.20074 36252 ft 470 kts 259°
2026-04-22 13:19 58.04444 -54.32312 36279 ft 469 kts 258°
2026-04-22 13:19 58.04355 -54.44641 36249 ft 470 kts 258°
2026-04-22 13:20 58.04254 -54.56976 36253 ft 470 kts 258°
2026-04-22 13:20 58.04142 -54.69313 36252 ft 470 kts 258°
2026-04-22 13:21 58.04018 -54.81647 36257 ft 469 kts 258°
2026-04-22 13:21 58.03886 -54.93907 36253 ft 466 kts 257°
2026-04-22 13:22 58.03739 -55.06129 36252 ft 466 kts 257°
2026-04-22 13:22 58.03578 -55.18345 36249 ft 466 kts 257°
2026-04-22 13:23 58.03407 -55.30559 36252 ft 465 kts 257°
2026-04-22 13:23 58.03226 -55.42770 36249 ft 466 kts 257°
2026-04-22 13:24 58.03032 -55.54980 36283 ft 465 kts 256°
2026-04-22 13:24 58.02834 -55.67096 36245 ft 460 kts 256°
2026-04-22 13:25 58.02621 -55.79139 36249 ft 459 kts 256°
2026-04-22 13:25 58.02393 -55.91164 36250 ft 459 kts 256°
2026-04-22 13:26 58.02155 -56.03186 36233 ft 459 kts 256°
2026-04-22 13:26 58.01907 -56.15207 36242 ft 458 kts 256°
2026-04-22 13:27 58.01649 -56.27221 36245 ft 458 kts 255°
2026-04-22 13:27 58.01383 -56.39195 36258 ft 455 kts 255°
2026-04-22 13:28 58.01108 -56.51079 36237 ft 453 kts 255°
2026-04-22 13:28 58.00816 -56.62943 36234 ft 453 kts 255°
2026-04-22 13:29 58.00514 -56.74794 36233 ft 453 kts 255°
2026-04-22 13:29 58.00203 -56.86648 36234 ft 452 kts 254°
2026-04-22 13:30 57.99882 -56.98493 36230 ft 452 kts 254°
2026-04-22 13:30 57.99607 -57.08322 36222 ft 452 kts 254°
2026-04-22 13:31 57.99209 -57.22067 36215 ft 452 kts 254°
2026-04-22 13:31 57.98855 -57.33888 36219 ft 452 kts 254°
2026-04-22 13:32 57.98491 -57.45703 36221 ft 451 kts 254°
2026-04-22 13:32 57.98178 -57.55584 36214 ft 451 kts 254°
2026-04-22 13:32 57.97986 -57.61494 36321 ft 452 kts 254°
2026-04-22 13:33 57.97790 -57.67414 36543 ft 453 kts 254°
2026-04-22 13:33 57.97592 -57.73335 36770 ft 454 kts 254°
2026-04-22 13:33 57.97390 -57.79278 37013 ft 455 kts 255°
2026-04-22 13:33 57.97186 -57.85168 37143 ft 458 kts 255°
2026-04-22 13:34 57.96977 -57.91164 37298 ft 460 kts 255°
2026-04-22 13:34 57.96783 -57.97186 37495 ft 463 kts 257°
2026-04-22 13:34 57.96831 -58.03315 37666 ft 472 kts 262°
2026-04-22 13:34 57.97001 -58.09501 37830 ft 474 kts 263°
2026-04-22 13:35 57.97213 -58.15715 37999 ft 476 kts 263°
2026-04-22 13:35 57.97445 -58.21939 38168 ft 477 kts 263°
2026-04-22 13:35 57.97681 -58.28192 38205 ft 478 kts 263°
2026-04-22 13:36 57.98144 -58.40672 38197 ft 477 kts 263°
2026-04-22 13:36 57.98579 -58.53155 38227 ft 478 kts 263°
2026-04-22 13:37 57.98991 -58.65693 38199 ft 481 kts 263°
2026-04-22 13:37 57.99395 -58.78304 38190 ft 482 kts 263°
2026-04-22 13:38 57.99791 -58.90925 38192 ft 482 kts 263°
2026-04-22 13:38 58.00359 -59.09854 38190 ft 482 kts 263°
2026-04-22 13:39 58.00721 -59.22468 38221 ft 482 kts 263°
2026-04-22 13:39 58.01068 -59.35157 38190 ft 487 kts 263°
2026-04-22 13:40 58.01409 -59.47922 38195 ft 487 kts 263°
2026-04-22 13:40 58.01739 -59.60673 38195 ft 487 kts 263°
2026-04-22 13:41 58.02056 -59.73427 38201 ft 487 kts 263°
2026-04-22 13:41 58.02358 -59.86175 38203 ft 486 kts 263°
2026-04-22 13:42 58.02620 -59.98931 38205 ft 486 kts 262°
2026-04-22 13:42 58.02669 -60.11566 38208 ft 485 kts 261°
2026-04-22 13:43 58.02659 -60.24282 38219 ft 485 kts 261°
2026-04-22 13:43 58.02664 -60.37004 38226 ft 485 kts 261°
2026-04-22 13:44 58.02677 -60.49729 38228 ft 485 kts 261°
2026-04-22 13:44 58.02683 -60.62446 38248 ft 485 kts 261°
2026-04-22 13:45 58.02676 -60.75149 38243 ft 484 kts 261°
2026-04-22 13:45 58.02655 -60.87849 38249 ft 484 kts 261°
2026-04-22 13:46 58.02621 -61.00534 38252 ft 484 kts 261°
2026-04-22 13:46 58.02574 -61.13227 38283 ft 483 kts 261°
2026-04-22 13:47 58.02514 -61.25915 38265 ft 484 kts 261°
2026-04-22 13:47 58.02441 -61.38614 38256 ft 485 kts 261°
2026-04-22 13:48 58.02357 -61.51336 38276 ft 485 kts 261°
2026-04-22 13:48 58.02260 -61.64053 38268 ft 485 kts 261°
2026-04-22 13:49 58.02150 -61.76762 38280 ft 484 kts 261°
2026-04-22 13:49 58.02028 -61.89461 38269 ft 484 kts 261°
2026-04-22 13:50 58.01892 -62.02161 38293 ft 484 kts 261°
2026-04-22 13:50 58.01743 -62.14891 38284 ft 486 kts 261°
2026-04-22 13:51 58.01582 -62.27636 38275 ft 486 kts 261°
2026-04-22 13:51 58.01409 -62.40368 38291 ft 486 kts 261°
2026-04-22 13:52 58.01222 -62.53121 38275 ft 487 kts 261°
2026-04-22 13:52 58.01021 -62.65878 38281 ft 487 kts 261°
2026-04-22 13:53 58.00811 -62.78562 38285 ft 488 kts 261°
2026-04-22 13:53 58.00585 -62.91367 38276 ft 489 kts 261°
2026-04-22 13:54 58.00347 -63.04171 38264 ft 489 kts 261°
2026-04-22 13:54 58.00096 -63.16966 38299 ft 488 kts 261°
2026-04-22 13:55 57.99820 -63.29752 38302 ft 487 kts 259°
2026-04-22 13:55 57.99079 -63.42362 38331 ft 483 kts 256°
2026-04-22 13:56 57.98110 -63.54904 38314 ft 484 kts 256°
2026-04-22 13:56 57.97183 -63.67477 38322 ft 485 kts 256°
2026-04-22 13:57 57.96302 -63.80084 38330 ft 486 kts 257°
2026-04-22 13:57 57.95428 -63.92699 38329 ft 486 kts 256°
2026-04-22 13:58 57.94543 -64.05301 38344 ft 486 kts 256°
2026-04-22 13:58 57.93643 -64.17888 38344 ft 485 kts 256°
2026-04-22 13:59 57.92727 -64.30474 38342 ft 485 kts 256°
2026-04-22 13:59 57.91800 -64.43045 38343 ft 485 kts 256°
2026-04-22 14:00 57.90861 -64.55608 38346 ft 485 kts 256°
2026-04-22 14:00 57.89910 -64.68157 38347 ft 485 kts 256°
2026-04-22 14:01 57.88946 -64.80707 38344 ft 485 kts 256°
2026-04-22 14:01 57.87968 -64.93263 38333 ft 486 kts 256°
2026-04-22 14:02 57.86977 -65.05825 38335 ft 486 kts 256°
2026-04-22 14:02 57.85974 -65.18380 38323 ft 486 kts 256°
2026-04-22 14:03 57.84951 -65.31012 38325 ft 486 kts 256°
2026-04-22 14:03 57.83924 -65.43546 38326 ft 486 kts 256°
2026-04-22 14:04 57.82884 -65.56077 38319 ft 486 kts 256°
2026-04-22 14:04 57.81831 -65.68604 38305 ft 487 kts 256°
2026-04-22 14:05 57.80761 -65.81177 38322 ft 489 kts 256°
2026-04-22 14:06 57.79132 -66.00040 38319 ft 488 kts 256°
2026-04-22 14:06 57.78031 -66.12605 38283 ft 488 kts 256°
2026-04-22 14:07 57.76918 -66.25155 38291 ft 488 kts 255°
2026-04-22 14:07 57.75791 -66.37698 38294 ft 489 kts 256°
2026-04-22 14:08 57.74658 -66.50176 38286 ft 489 kts 256°
2026-04-22 14:08 57.73504 -66.62733 38284 ft 489 kts 256°
2026-04-22 14:09 57.72340 -66.75274 38280 ft 489 kts 256°
2026-04-22 14:09 57.71162 -66.87812 38279 ft 490 kts 256°
2026-04-22 14:10 57.69970 -67.00363 38277 ft 490 kts 256°
2026-04-22 14:10 57.68769 -67.12897 38280 ft 490 kts 256°
2026-04-22 14:11 57.67554 -67.25417 38265 ft 490 kts 256°
2026-04-22 14:11 57.66325 -67.37930 38273 ft 490 kts 256°
2026-04-22 14:12 57.65085 -67.50433 38271 ft 490 kts 256°
2026-04-22 14:12 57.63834 -67.62924 38275 ft 490 kts 255°
2026-04-22 14:13 57.62570 -67.75410 38275 ft 490 kts 255°
2026-04-22 14:13 57.61293 -67.87884 38254 ft 490 kts 256°
2026-04-22 14:14 57.60004 -68.00353 38261 ft 489 kts 256°
2026-04-22 14:14 57.58705 -68.12804 38256 ft 489 kts 255°
2026-04-22 14:15 57.57392 -68.25246 38261 ft 489 kts 255°
2026-04-22 14:15 57.56294 -68.35573 38262 ft 489 kts 255°
2026-04-22 14:16 57.54958 -68.48002 38280 ft 489 kts 256°
2026-04-22 14:16 57.53612 -68.60411 38251 ft 489 kts 255°
2026-04-22 14:17 57.52255 -68.72801 38251 ft 489 kts 255°
2026-04-22 14:17 57.50886 -68.85176 38254 ft 488 kts 255°
2026-04-22 14:18 57.49505 -68.97548 38249 ft 488 kts 255°
2026-04-22 14:18 57.48111 -69.09907 38251 ft 489 kts 255°
2026-04-22 14:19 57.46706 -69.22260 38258 ft 489 kts 255°
2026-04-22 14:19 57.45290 -69.34591 38248 ft 488 kts 255°
2026-04-22 14:20 57.43142 -69.53077 38245 ft 488 kts 255°
2026-04-22 14:20 57.41695 -69.65390 38244 ft 488 kts 255°
2026-04-22 14:21 57.39502 -69.83835 38236 ft 488 kts 255°
2026-04-22 14:22 57.37282 -70.02266 38238 ft 489 kts 255°
2026-04-22 14:23 57.35034 -70.20683 38238 ft 489 kts 255°
2026-04-22 14:23 57.33521 -70.32948 38230 ft 489 kts 255°
2026-04-22 14:24 57.31996 -70.45201 38231 ft 489 kts 255°
2026-04-22 14:24 57.30459 -70.57444 38225 ft 489 kts 255°
2026-04-22 14:25 57.28909 -70.69684 38214 ft 489 kts 255°
2026-04-22 14:25 57.27346 -70.81919 38216 ft 489 kts 255°
2026-04-22 14:26 57.25771 -70.94142 38205 ft 489 kts 255°
2026-04-22 14:26 57.24185 -71.06356 38200 ft 489 kts 255°
2026-04-22 14:27 57.22588 -71.18551 38191 ft 489 kts 255°
2026-04-22 14:27 57.20979 -71.30748 38192 ft 489 kts 255°
2026-04-22 14:28 57.19368 -71.42841 38178 ft 489 kts 255°
2026-04-22 14:28 57.17735 -71.55014 38178 ft 489 kts 254°
2026-04-22 14:29 57.16089 -71.67175 38181 ft 489 kts 254°
2026-04-22 14:29 57.14434 -71.79315 38173 ft 489 kts 254°
2026-04-22 14:30 57.12765 -71.91449 38175 ft 489 kts 254°
2026-04-22 14:30 57.11085 -72.03569 38171 ft 489 kts 254°
2026-04-22 14:31 57.09394 -72.15685 38170 ft 489 kts 254°
2026-04-22 14:31 57.07691 -72.27792 38154 ft 489 kts 254°
2026-04-22 14:32 57.05974 -72.39893 38154 ft 489 kts 254°
2026-04-22 14:32 57.04246 -72.51978 38155 ft 489 kts 254°
2026-04-22 14:33 57.02508 -72.64051 38141 ft 489 kts 254°
2026-04-22 14:33 57.00757 -72.76111 38136 ft 490 kts 253°
2026-04-22 14:34 56.98994 -72.88171 38134 ft 489 kts 254°
2026-04-22 14:34 56.97220 -73.00214 38121 ft 489 kts 253°
2026-04-22 14:35 56.95434 -73.12248 38113 ft 489 kts 253°
2026-04-22 14:35 56.93637 -73.24263 38113 ft 489 kts 253°
2026-04-22 14:36 56.91829 -73.36267 38103 ft 489 kts 253°
2026-04-22 14:36 56.90009 -73.48263 38093 ft 489 kts 253°
2026-04-22 14:37 56.88178 -73.60245 38092 ft 489 kts 253°
2026-04-22 14:37 56.86349 -73.72132 38097 ft 489 kts 253°
2026-04-22 14:38 56.84494 -73.84093 38081 ft 489 kts 253°
2026-04-22 14:38 56.82628 -73.96036 38070 ft 489 kts 253°
2026-04-22 14:39 56.80752 -74.07964 38079 ft 489 kts 253°
2026-04-22 14:39 56.78865 -74.19875 38060 ft 489 kts 253°
2026-04-22 14:40 56.76013 -74.37733 38061 ft 489 kts 253°
2026-04-22 14:40 56.74098 -74.49611 38052 ft 489 kts 253°
2026-04-22 14:41 56.72173 -74.61478 38050 ft 489 kts 252°
2026-04-22 14:41 56.70234 -74.73340 38048 ft 488 kts 253°
2026-04-22 14:42 56.68286 -74.85180 38040 ft 488 kts 253°
2026-04-22 14:42 56.66328 -74.97005 38036 ft 488 kts 253°
2026-04-22 14:43 56.64358 -75.08820 38036 ft 488 kts 253°
2026-04-22 14:43 56.62377 -75.20618 38032 ft 488 kts 253°
2026-04-22 14:44 56.60385 -75.32404 38019 ft 489 kts 252°
2026-04-22 14:44 56.58381 -75.44180 38024 ft 489 kts 253°
2026-04-22 14:45 56.56366 -75.55951 38017 ft 489 kts 253°
2026-04-22 14:45 56.54338 -75.67715 38009 ft 489 kts 253°
2026-04-22 14:46 56.52310 -75.79401 38003 ft 490 kts 253°
2026-04-22 14:46 56.50258 -75.91157 38006 ft 490 kts 252°
2026-04-22 14:47 56.48192 -76.02907 37996 ft 490 kts 253°
2026-04-22 14:47 56.46115 -76.14646 37989 ft 490 kts 253°
2026-04-22 14:48 56.44026 -76.26385 37992 ft 490 kts 252°
2026-04-22 14:48 56.41926 -76.38103 37982 ft 490 kts 252°
2026-04-22 14:49 56.39800 -76.49895 37983 ft 490 kts 252°
2026-04-22 14:49 56.37676 -76.61594 37984 ft 490 kts 252°
2026-04-22 14:50 56.35542 -76.73277 37992 ft 490 kts 252°
2026-04-22 14:50 56.33402 -76.84923 38001 ft 490 kts 252°
2026-04-22 14:51 56.31265 -76.96483 38010 ft 489 kts 252°
2026-04-22 14:51 56.29104 -77.08104 37997 ft 489 kts 252°
2026-04-22 14:52 56.26930 -77.19713 38005 ft 490 kts 252°
2026-04-22 14:52 56.24746 -77.31312 38006 ft 490 kts 252°
2026-04-22 14:53 56.22551 -77.42894 38002 ft 489 kts 252°
2026-04-22 14:53 56.20349 -77.54441 37997 ft 488 kts 252°
2026-04-22 14:54 56.18140 -77.65961 37999 ft 488 kts 252°
2026-04-22 14:54 56.15920 -77.77466 37998 ft 488 kts 252°
2026-04-22 14:55 56.13690 -77.88955 38001 ft 488 kts 252°
2026-04-22 14:55 56.11450 -78.00431 38001 ft 488 kts 252°
2026-04-22 14:56 56.09198 -78.11896 37998 ft 488 kts 252°
2026-04-22 14:56 56.06935 -78.23351 37998 ft 488 kts 252°
2026-04-22 14:57 56.04663 -78.34785 38004 ft 488 kts 252°
2026-04-22 14:57 56.02379 -78.46208 37999 ft 488 kts 252°
2026-04-22 14:58 56.00087 -78.57609 38004 ft 487 kts 252°
2026-04-22 14:58 55.97787 -78.68984 38004 ft 487 kts 252°
2026-04-22 14:59 55.95479 -78.80335 38005 ft 486 kts 252°
2026-04-22 14:59 55.93160 -78.91673 38004 ft 486 kts 252°
2026-04-22 15:00 55.90830 -79.03000 38013 ft 486 kts 251°
2026-04-22 15:00 55.88491 -79.14310 38009 ft 486 kts 251°
2026-04-22 15:01 55.86539 -79.23698 38003 ft 486 kts 251°
2026-04-22 15:01 55.84182 -79.34975 38010 ft 486 kts 252°
2026-04-22 15:02 55.81819 -79.46217 38018 ft 485 kts 252°
2026-04-22 15:02 55.79447 -79.57440 38017 ft 485 kts 251°
2026-04-22 15:03 55.77066 -79.68647 38018 ft 485 kts 251°
2026-04-22 15:03 55.74674 -79.79844 38019 ft 485 kts 251°
2026-04-22 15:04 55.72271 -79.91027 38020 ft 485 kts 251°
2026-04-22 15:04 55.69590 -80.01999 38025 ft 487 kts 244°
2026-04-22 15:05 55.66253 -80.12464 38023 ft 488 kts 242°
2026-04-22 15:05 55.62798 -80.22816 38023 ft 488 kts 242°
2026-04-22 15:06 55.59324 -80.33141 38029 ft 488 kts 242°
2026-04-22 15:06 55.55850 -80.43466 38032 ft 488 kts 242°
2026-04-22 15:07 55.52398 -80.53708 38030 ft 488 kts 242°
2026-04-22 15:07 55.48918 -80.63998 38037 ft 488 kts 242°
2026-04-22 15:08 55.45428 -80.74273 38040 ft 488 kts 242°
2026-04-22 15:08 55.41934 -80.84514 38041 ft 488 kts 242°
2026-04-22 15:09 55.38426 -80.94752 38045 ft 488 kts 242°
2026-04-22 15:09 55.34913 -81.04964 38048 ft 488 kts 242°
2026-04-22 15:10 55.31388 -81.15164 38044 ft 488 kts 242°
2026-04-22 15:10 55.27860 -81.25331 38053 ft 488 kts 242°
2026-04-22 15:11 55.24324 -81.35481 38056 ft 488 kts 242°
2026-04-22 15:11 55.20778 -81.45615 38064 ft 488 kts 242°
2026-04-22 15:12 55.17226 -81.55725 38065 ft 487 kts 242°
2026-04-22 15:12 55.13668 -81.65810 38082 ft 487 kts 242°
2026-04-22 15:13 55.10102 -81.75878 38055 ft 487 kts 242°
2026-04-22 15:13 55.06529 -81.85920 38079 ft 487 kts 242°
2026-04-22 15:14 55.02952 -81.95938 38079 ft 487 kts 242°
2026-04-22 15:14 54.99367 -82.05937 38074 ft 486 kts 242°
2026-04-22 15:15 54.95776 -82.15909 38094 ft 486 kts 242°
2026-04-22 15:15 54.92182 -82.25852 38088 ft 486 kts 242°
2026-04-22 15:16 54.88578 -82.35780 38100 ft 486 kts 242°
2026-04-22 15:16 54.84963 -82.45696 38099 ft 485 kts 242°
2026-04-22 15:17 54.81346 -82.55580 38105 ft 485 kts 242°
2026-04-22 15:17 54.77724 -82.65439 38096 ft 485 kts 242°
2026-04-22 15:18 54.74120 -82.75210 38114 ft 485 kts 242°
2026-04-22 15:18 54.70460 -82.85094 38116 ft 484 kts 242°
2026-04-22 15:19 54.66817 -82.94893 38117 ft 485 kts 242°
2026-04-22 15:19 54.63166 -83.04672 38122 ft 484 kts 242°
2026-04-22 15:20 54.59509 -83.14430 38119 ft 484 kts 242°
2026-04-22 15:20 54.55846 -83.24166 38106 ft 484 kts 242°
2026-04-22 15:21 54.52172 -83.33893 38127 ft 484 kts 242°
2026-04-22 15:21 54.48492 -83.43598 38134 ft 484 kts 242°
2026-04-22 15:22 54.44804 -83.53285 38134 ft 484 kts 242°
2026-04-22 15:22 54.41132 -83.62890 38136 ft 484 kts 242°
2026-04-22 15:23 54.37434 -83.72529 38139 ft 483 kts 242°
2026-04-22 15:23 54.33732 -83.82143 38113 ft 483 kts 242°
2026-04-22 15:24 54.30023 -83.91734 38144 ft 483 kts 242°
2026-04-22 15:24 54.26308 -84.01308 38143 ft 483 kts 242°
2026-04-22 15:25 54.22586 -84.10861 38146 ft 483 kts 242°
2026-04-22 15:25 54.18852 -84.20409 38146 ft 483 kts 242°
2026-04-22 15:26 54.15112 -84.29935 38151 ft 483 kts 242°
2026-04-22 15:26 54.11364 -84.39443 38125 ft 483 kts 242°
2026-04-22 15:27 54.07611 -84.48929 38154 ft 482 kts 242°
2026-04-22 15:27 54.03858 -84.58379 38154 ft 482 kts 242°
2026-04-22 15:28 54.00095 -84.67820 38153 ft 482 kts 242°
2026-04-22 15:28 53.96325 -84.77241 38152 ft 482 kts 242°
2026-04-22 15:29 53.92558 -84.86617 38162 ft 480 kts 242°
2026-04-22 15:30 53.87541 -84.99056 38162 ft 480 kts 242°
2026-04-22 15:30 53.83131 -85.09937 38168 ft 479 kts 242°
2026-04-22 15:31 53.79354 -85.19223 38167 ft 479 kts 242°
2026-04-22 15:31 53.75567 -85.28496 38167 ft 479 kts 242°
2026-04-22 15:32 53.71774 -85.37751 38167 ft 479 kts 242°
2026-04-22 15:32 53.68003 -85.46917 38176 ft 479 kts 242°
2026-04-22 15:33 53.64201 -85.56124 38167 ft 479 kts 242°
2026-04-22 15:33 53.60366 -85.65373 38176 ft 478 kts 242°
2026-04-22 15:34 53.56554 -85.74537 38174 ft 478 kts 242°
2026-04-22 15:34 53.52732 -85.83692 38176 ft 478 kts 242°
2026-04-22 15:35 53.49555 -85.91277 38175 ft 478 kts 242°
2026-04-22 15:35 53.45104 -86.01863 38177 ft 477 kts 242°
2026-04-22 15:36 53.41272 -86.10943 38175 ft 477 kts 242°
2026-04-22 15:36 53.37429 -86.20019 38175 ft 477 kts 242°
2026-04-22 15:37 53.33581 -86.29071 38175 ft 477 kts 242°
2026-04-22 15:37 53.29722 -86.38118 38179 ft 477 kts 242°
2026-04-22 15:38 53.25859 -86.47136 38175 ft 476 kts 242°
2026-04-22 15:38 53.20072 -86.60593 38141 ft 475 kts 242°
2026-04-22 15:39 53.16212 -86.69528 38176 ft 474 kts 242°
2026-04-22 15:39 53.12358 -86.78421 38176 ft 473 kts 242°
2026-04-22 15:40 53.08496 -86.87301 38173 ft 474 kts 242°
2026-04-22 15:40 53.04627 -86.96166 38146 ft 473 kts 242°
2026-04-22 15:41 53.00755 -87.05004 38172 ft 472 kts 242°
2026-04-22 15:41 52.96882 -87.13814 38130 ft 472 kts 242°
2026-04-22 15:42 52.94948 -87.18203 38165 ft 472 kts 242°
2026-04-22 15:42 52.89456 -87.30622 38170 ft 471 kts 242°
2026-04-22 15:43 52.85579 -87.39356 38172 ft 471 kts 242°
2026-04-22 15:43 52.81695 -87.48075 38169 ft 471 kts 242°
2026-04-22 15:44 52.77806 -87.56770 38164 ft 469 kts 242°
2026-04-22 15:44 52.73926 -87.65418 38125 ft 469 kts 242°
2026-04-22 15:45 52.70047 -87.74033 38172 ft 467 kts 242°
2026-04-22 15:45 52.66174 -87.82608 38167 ft 466 kts 242°
2026-04-22 15:46 52.62293 -87.91177 38161 ft 467 kts 242°
2026-04-22 15:46 52.58406 -87.99729 38160 ft 467 kts 242°
2026-04-22 15:47 52.54516 -88.08250 38154 ft 464 kts 243°
2026-04-22 15:47 52.50747 -88.16480 38134 ft 463 kts 243°
2026-04-22 15:48 52.46871 -88.24921 38155 ft 463 kts 243°
2026-04-22 15:48 52.42994 -88.33343 38151 ft 463 kts 243°
2026-04-22 15:49 52.39106 -88.41757 38148 ft 463 kts 243°
2026-04-22 15:49 52.35212 -88.50153 38142 ft 463 kts 243°
2026-04-22 15:50 52.31315 -88.58524 38145 ft 461 kts 243°
2026-04-22 15:50 52.27431 -88.66838 38086 ft 460 kts 243°
2026-04-22 15:51 52.23556 -88.75112 38138 ft 458 kts 243°
2026-04-22 15:51 52.19715 -88.83285 38129 ft 457 kts 243°
2026-04-22 15:52 52.15844 -88.91501 38127 ft 457 kts 243°
2026-04-22 15:52 52.11967 -88.99702 38127 ft 457 kts 243°
2026-04-22 15:53 52.08088 -89.07873 38115 ft 454 kts 242°
2026-04-22 15:53 52.04238 -89.15951 38063 ft 450 kts 242°
2026-04-22 15:54 52.00412 -89.23970 38119 ft 448 kts 242°
2026-04-22 15:54 51.96591 -89.31953 38111 ft 448 kts 242°
2026-04-22 15:55 51.92766 -89.39919 38111 ft 448 kts 242°
2026-04-22 15:55 51.88934 -89.47871 38101 ft 448 kts 242°
2026-04-22 15:56 51.85097 -89.55810 38100 ft 448 kts 242°
2026-04-22 15:56 51.81254 -89.63734 38098 ft 448 kts 242°
2026-04-22 15:57 51.77410 -89.71634 38087 ft 446 kts 241°
2026-04-22 15:57 51.73578 -89.79484 38091 ft 445 kts 241°
2026-04-22 15:58 51.69744 -89.87320 38080 ft 445 kts 241°
2026-04-22 15:58 51.65906 -89.95142 38088 ft 445 kts 241°
2026-04-22 15:59 51.62059 -90.02957 38051 ft 445 kts 241°
2026-04-22 15:59 51.58217 -90.10733 38022 ft 444 kts 241°
2026-04-22 16:00 51.54374 -90.18494 38020 ft 444 kts 240°
2026-04-22 16:00 51.50528 -90.26233 38025 ft 443 kts 240°
2026-04-22 16:01 51.46674 -90.33965 38020 ft 444 kts 240°
2026-04-22 16:01 51.42814 -90.41687 38021 ft 444 kts 240°
2026-04-22 16:02 51.38951 -90.49393 38019 ft 444 kts 240°
2026-04-22 16:02 51.35081 -90.57089 38036 ft 444 kts 240°
2026-04-22 16:03 51.31201 -90.64779 38044 ft 445 kts 240°
2026-04-22 16:03 51.27316 -90.72458 38045 ft 445 kts 239°
2026-04-22 16:04 51.23545 -90.79893 38042 ft 445 kts 239°
2026-04-22 16:04 51.19671 -90.87505 38043 ft 445 kts 239°
2026-04-22 16:05 51.15766 -90.95154 38018 ft 445 kts 239°
2026-04-22 16:05 51.11860 -91.02783 38040 ft 444 kts 239°
2026-04-22 16:06 51.07954 -91.10392 38040 ft 444 kts 239°
2026-04-22 16:06 51.04042 -91.17992 38032 ft 444 kts 239°
2026-04-22 16:07 51.00124 -91.25578 38031 ft 444 kts 239°
2026-04-22 16:07 50.96199 -91.33154 38025 ft 444 kts 239°
2026-04-22 16:08 50.92271 -91.40715 38027 ft 444 kts 239°
2026-04-22 16:08 50.88977 -91.47041 38026 ft 444 kts 239°
2026-04-22 16:09 50.85036 -91.54583 38017 ft 445 kts 239°
2026-04-22 16:09 50.81086 -91.62124 38015 ft 445 kts 239°
2026-04-22 16:10 50.77155 -91.69608 38020 ft 445 kts 239°
2026-04-22 16:10 50.73191 -91.77130 38018 ft 446 kts 239°
2026-04-22 16:11 50.69223 -91.84639 38017 ft 446 kts 239°
2026-04-22 16:11 50.65250 -91.92135 38005 ft 445 kts 238°
2026-04-22 16:12 50.61282 -91.99599 38004 ft 445 kts 238°
2026-04-22 16:12 50.57303 -92.07069 38001 ft 446 kts 238°
2026-04-22 16:13 50.53315 -92.14528 38001 ft 446 kts 238°
2026-04-22 16:13 50.49318 -92.21981 38001 ft 446 kts 238°
2026-04-22 16:14 50.45319 -92.29420 37997 ft 446 kts 238°
2026-04-22 16:14 50.41315 -92.36846 37994 ft 446 kts 238°
2026-04-22 16:15 50.37309 -92.44254 37988 ft 446 kts 237°
2026-04-22 16:15 50.33292 -92.51660 37989 ft 446 kts 237°
2026-04-22 16:16 50.29272 -92.59050 37975 ft 446 kts 237°
2026-04-22 16:16 50.25246 -92.66433 37982 ft 446 kts 237°
2026-04-22 16:17 50.21216 -92.73800 37972 ft 446 kts 237°
2026-04-22 16:17 50.17182 -92.81151 37964 ft 446 kts 237°
2026-04-22 16:18 50.13141 -92.88497 37969 ft 447 kts 236°
2026-04-22 16:18 50.09092 -92.95839 37959 ft 447 kts 236°
2026-04-22 16:19 50.05034 -93.03175 37959 ft 447 kts 236°
2026-04-22 16:19 50.00968 -93.10502 37947 ft 447 kts 236°
2026-04-22 16:20 49.96896 -93.17821 37946 ft 447 kts 236°
2026-04-22 16:20 49.92822 -93.25122 37946 ft 447 kts 236°
2026-04-22 16:21 49.88740 -93.32420 37937 ft 448 kts 236°
2026-04-22 16:21 49.84651 -93.39707 37935 ft 448 kts 236°
2026-04-22 16:22 49.78505 -93.50621 37923 ft 448 kts 235°
2026-04-22 16:23 49.72350 -93.61506 37883 ft 448 kts 235°
2026-04-22 16:23 49.68240 -93.68750 37898 ft 448 kts 234°
2026-04-22 16:24 49.62088 -93.79552 37905 ft 446 kts 234°
2026-04-22 16:25 49.58017 -93.86679 37906 ft 446 kts 234°
2026-04-22 16:25 49.51855 -93.97427 37895 ft 446 kts 234°
2026-04-22 16:26 49.47744 -94.04573 37896 ft 446 kts 234°
2026-04-22 16:26 49.43846 -94.11928 37881 ft 442 kts 238°
2026-04-22 16:27 49.40194 -94.19509 37888 ft 441 kts 239°
2026-04-22 16:27 49.36501 -94.27103 37887 ft 441 kts 238°
2026-04-22 16:28 49.32779 -94.34592 37886 ft 442 kts 238°
2026-04-22 16:28 49.29057 -94.42002 37886 ft 442 kts 238°
2026-04-22 16:29 49.25302 -94.49449 37879 ft 442 kts 238°
2026-04-22 16:29 49.21516 -94.56944 37878 ft 442 kts 238°
2026-04-22 16:30 49.17779 -94.64324 37873 ft 441 kts 238°
2026-04-22 16:30 49.14021 -94.71724 37874 ft 441 kts 238°
2026-04-22 16:31 49.10236 -94.79158 37859 ft 441 kts 237°
2026-04-22 16:31 49.06470 -94.86537 37851 ft 441 kts 237°
2026-04-22 16:32 49.02701 -94.93896 37844 ft 440 kts 237°
2026-04-22 16:32 48.98940 -95.01224 37843 ft 439 kts 237°
2026-04-22 16:33 48.95192 -95.08504 37837 ft 439 kts 237°
2026-04-22 16:33 48.91423 -95.15805 37841 ft 438 kts 237°
2026-04-22 16:34 48.87657 -95.23082 37842 ft 439 kts 237°
2026-04-22 16:34 48.83878 -95.30365 37834 ft 439 kts 237°
2026-04-22 16:35 48.80092 -95.37641 37838 ft 439 kts 237°
2026-04-22 16:35 48.76300 -95.44908 37828 ft 439 kts 237°
2026-04-22 16:36 48.72503 -95.52163 37834 ft 439 kts 237°
2026-04-22 16:36 48.68701 -95.59409 37827 ft 439 kts 237°
2026-04-22 16:37 48.64894 -95.66645 37812 ft 439 kts 236°
2026-04-22 16:37 48.61083 -95.73871 37812 ft 440 kts 236°
2026-04-22 16:38 48.57254 -95.81110 38180 ft 440 kts 236°
2026-04-22 16:38 48.55343 -95.84713 38512 ft 439 kts 236°
2026-04-22 16:38 48.53437 -95.88303 38732 ft 438 kts 236°
2026-04-22 16:39 48.51530 -95.91893 38880 ft 439 kts 236°
2026-04-22 16:39 48.49616 -95.95490 39010 ft 440 kts 236°
2026-04-22 16:39 48.47694 -95.99099 39128 ft 442 kts 236°
2026-04-22 16:39 48.45768 -96.02712 39290 ft 443 kts 236°
2026-04-22 16:40 48.43836 -96.06328 39439 ft 443 kts 236°
2026-04-22 16:40 48.41903 -96.09939 39606 ft 443 kts 236°
2026-04-22 16:40 48.38027 -96.17169 39816 ft 445 kts 236°
2026-04-22 16:41 48.36085 -96.20784 39819 ft 444 kts 235°
2026-04-22 16:41 48.32194 -96.28011 39821 ft 444 kts 235°
2026-04-22 16:42 48.28302 -96.35222 39824 ft 445 kts 235°
2026-04-22 16:42 48.24403 -96.42426 39813 ft 445 kts 235°
2026-04-22 16:43 48.20502 -96.49616 39820 ft 444 kts 235°
2026-04-22 16:43 48.16602 -96.56782 39795 ft 443 kts 235°
2026-04-22 16:44 48.12700 -96.63935 39787 ft 443 kts 235°
2026-04-22 16:44 48.08795 -96.71075 39775 ft 443 kts 235°
2026-04-22 16:45 48.04883 -96.78208 39773 ft 444 kts 235°
2026-04-22 16:45 48.00968 -96.85329 39774 ft 443 kts 234°
2026-04-22 16:46 47.97058 -96.92419 39780 ft 442 kts 234°
2026-04-22 16:46 47.93149 -96.99491 39776 ft 442 kts 234°
2026-04-22 16:47 47.89237 -97.06551 39776 ft 442 kts 234°
2026-04-22 16:47 47.85982 -97.12410 39776 ft 442 kts 234°
2026-04-22 16:48 47.81395 -97.20644 39774 ft 442 kts 234°
2026-04-22 16:48 47.77473 -97.27665 39749 ft 441 kts 234°
2026-04-22 16:49 47.73553 -97.34662 39757 ft 440 kts 234°
2026-04-22 16:49 47.69637 -97.41637 39759 ft 440 kts 234°
2026-04-22 16:50 47.65717 -97.48602 39757 ft 440 kts 234°
2026-04-22 16:50 47.62456 -97.54381 39773 ft 440 kts 234°
2026-04-22 16:51 47.58525 -97.61332 39753 ft 439 kts 233°
2026-04-22 16:51 47.54595 -97.68262 39767 ft 439 kts 233°
2026-04-22 16:52 47.50663 -97.75179 39755 ft 440 kts 233°
2026-04-22 16:52 47.46720 -97.82099 39754 ft 440 kts 233°
2026-04-22 16:53 47.42771 -97.89008 39747 ft 440 kts 233°
2026-04-22 16:53 47.38818 -97.95908 39749 ft 440 kts 233°
2026-04-22 16:54 47.34864 -98.02794 39748 ft 440 kts 233°
2026-04-22 16:54 47.30903 -98.09672 39750 ft 440 kts 233°
2026-04-22 16:55 47.26933 -98.16551 39740 ft 441 kts 233°
2026-04-22 16:55 47.22948 -98.23437 39744 ft 442 kts 233°
2026-04-22 16:56 47.18957 -98.30315 39748 ft 442 kts 232°
2026-04-22 16:56 47.14943 -98.37216 39741 ft 445 kts 232°
2026-04-22 16:57 47.10938 -98.44084 39738 ft 446 kts 232°
2026-04-22 16:57 47.06899 -98.50991 39714 ft 446 kts 232°
2026-04-22 16:58 47.02819 -98.57952 39729 ft 446 kts 232°
2026-04-22 16:58 46.98802 -98.64789 39738 ft 447 kts 232°
2026-04-22 16:59 46.94747 -98.71670 39730 ft 446 kts 232°
2026-04-22 16:59 46.90693 -98.78535 39730 ft 446 kts 232°
2026-04-22 17:00 46.86635 -98.85388 39728 ft 446 kts 232°
2026-04-22 17:00 46.80538 -98.95655 39727 ft 446 kts 231°
2026-04-22 17:01 46.76463 -99.02494 39719 ft 447 kts 231°
2026-04-22 17:01 46.72381 -99.09327 39716 ft 447 kts 231°
2026-04-22 17:02 46.68292 -99.16156 39700 ft 447 kts 231°
2026-04-22 17:02 46.64198 -99.22975 39700 ft 447 kts 231°
2026-04-22 17:03 46.60103 -99.29779 39690 ft 447 kts 231°
2026-04-22 17:03 46.56002 -99.36577 39686 ft 447 kts 230°
2026-04-22 17:04 46.51897 -99.43362 39677 ft 447 kts 230°
2026-04-22 17:04 46.47795 -99.50129 39678 ft 447 kts 230°
2026-04-22 17:05 46.43687 -99.56887 39669 ft 447 kts 230°
2026-04-22 17:05 46.39576 -99.63632 39664 ft 447 kts 230°
2026-04-22 17:06 46.35462 -99.70369 39658 ft 445 kts 230°
2026-04-22 17:06 46.31363 -99.77061 39659 ft 444 kts 230°
2026-04-22 17:07 46.27267 -99.83734 39644 ft 444 kts 230°
2026-04-22 17:07 46.23164 -99.90401 39644 ft 444 kts 230°
2026-04-22 17:08 46.19087 -99.97011 39639 ft 444 kts 230°
2026-04-22 17:08 46.14983 -100.03648 39642 ft 442 kts 229°
2026-04-22 17:09 46.10895 -100.10241 39625 ft 440 kts 229°
2026-04-22 17:09 46.06808 -100.16820 39627 ft 441 kts 229°
2026-04-22 17:10 46.02713 -100.23394 39624 ft 441 kts 229°
2026-04-22 17:10 45.98611 -100.29964 39625 ft 441 kts 229°
2026-04-22 17:11 45.94507 -100.36522 39624 ft 440 kts 229°
2026-04-22 17:11 45.90414 -100.43046 39619 ft 439 kts 229°
2026-04-22 17:12 45.86318 -100.49559 39623 ft 440 kts 229°
2026-04-22 17:12 45.82210 -100.56077 39620 ft 441 kts 229°
2026-04-22 17:13 45.78096 -100.62589 39622 ft 441 kts 229°
2026-04-22 17:13 45.73978 -100.69090 39616 ft 439 kts 228°
2026-04-22 17:14 45.69877 -100.75551 39623 ft 438 kts 228°
2026-04-22 17:14 45.65777 -100.81992 39621 ft 438 kts 228°
2026-04-22 17:15 45.61670 -100.88432 39614 ft 439 kts 228°
2026-04-22 17:15 45.57548 -100.94880 39614 ft 440 kts 228°
2026-04-22 17:16 45.53422 -101.01318 39605 ft 438 kts 228°
2026-04-22 17:16 45.49322 -101.07701 39606 ft 436 kts 228°
2026-04-22 17:17 45.45226 -101.14063 39602 ft 436 kts 228°
2026-04-22 17:17 45.41155 -101.20372 39599 ft 436 kts 227°
2026-04-22 17:18 45.37044 -101.26729 39600 ft 437 kts 227°
2026-04-22 17:18 45.32924 -101.33083 39601 ft 437 kts 227°
2026-04-22 17:19 45.24672 -101.45769 39600 ft 437 kts 227°
2026-04-22 17:20 45.16405 -101.58418 39599 ft 438 kts 227°
2026-04-22 17:21 45.10202 -101.67875 39597 ft 436 kts 226°
2026-04-22 17:22 45.03542 -101.76690 39597 ft 435 kts 221°
2026-04-22 17:23 44.96625 -101.85007 39598 ft 435 kts 220°
2026-04-22 17:23 44.89719 -101.93262 39597 ft 435 kts 220°
2026-04-22 17:24 44.85102 -101.98781 39595 ft 435 kts 220°
2026-04-22 17:24 44.80490 -102.04287 39592 ft 435 kts 220°
2026-04-22 17:25 44.75873 -102.09785 39595 ft 435 kts 220°
2026-04-22 17:25 44.71253 -102.15275 39586 ft 435 kts 220°
2026-04-22 17:26 44.66628 -102.20759 39596 ft 435 kts 220°
2026-04-22 17:26 44.62016 -102.26216 39589 ft 433 kts 220°
2026-04-22 17:27 44.57414 -102.31650 39589 ft 432 kts 220°
2026-04-22 17:27 44.52803 -102.37081 39583 ft 433 kts 220°
2026-04-22 17:28 44.48195 -102.42498 39582 ft 433 kts 220°
2026-04-22 17:28 44.43581 -102.47911 39595 ft 432 kts 219°
2026-04-22 17:29 44.38982 -102.53295 39581 ft 430 kts 219°
2026-04-22 17:29 44.34392 -102.58656 39578 ft 430 kts 219°
2026-04-22 17:30 44.29802 -102.64006 39575 ft 430 kts 219°
2026-04-22 17:30 44.25210 -102.69348 39578 ft 429 kts 219°
2026-04-22 17:31 44.20620 -102.74676 39581 ft 429 kts 219°
2026-04-22 17:31 44.16026 -102.79997 39609 ft 429 kts 219°
2026-04-22 17:32 44.11430 -102.85310 39616 ft 430 kts 219°
2026-04-22 17:32 44.06829 -102.90617 39630 ft 430 kts 219°
2026-04-22 17:33 44.02227 -102.95913 39634 ft 430 kts 219°
2026-04-22 17:33 43.97677 -103.01299 39635 ft 430 kts 223°
2026-04-22 17:34 43.93493 -103.07255 39629 ft 431 kts 225°
2026-04-22 17:34 43.89393 -103.13310 39565 ft 431 kts 225°
2026-04-22 17:35 43.85964 -103.18393 39584 ft 432 kts 225°
2026-04-22 17:35 43.81841 -103.24478 39635 ft 433 kts 225°
2026-04-22 17:36 43.77715 -103.30537 39681 ft 433 kts 224°
2026-04-22 17:36 43.73582 -103.36588 39728 ft 432 kts 224°
2026-04-22 17:37 43.69476 -103.42589 39754 ft 432 kts 224°
2026-04-22 17:37 43.65343 -103.48615 39769 ft 432 kts 224°
2026-04-22 17:38 43.61194 -103.54652 39751 ft 435 kts 224°
2026-04-22 17:38 43.59104 -103.57684 39597 ft 436 kts 224°
2026-04-22 17:38 43.57018 -103.60711 39605 ft 436 kts 224°
2026-04-22 17:39 43.52844 -103.66763 39608 ft 435 kts 224°
2026-04-22 17:40 43.46580 -103.75815 39594 ft 435 kts 224°
2026-04-22 17:40 43.42398 -103.81843 39602 ft 436 kts 224°
2026-04-22 17:41 43.38209 -103.87866 39605 ft 436 kts 224°
2026-04-22 17:41 43.34004 -103.93900 39591 ft 438 kts 224°
2026-04-22 17:42 43.29788 -103.99939 39592 ft 437 kts 224°
2026-04-22 17:42 43.25574 -104.05961 39600 ft 437 kts 224°
2026-04-22 17:43 43.21355 -104.11976 39592 ft 437 kts 224°
2026-04-22 17:43 43.17132 -104.17984 39603 ft 437 kts 224°
2026-04-22 17:44 43.12880 -104.24020 39600 ft 437 kts 224°
2026-04-22 17:44 43.08682 -104.29968 39612 ft 437 kts 224°
2026-04-22 17:45 43.04454 -104.35946 39608 ft 437 kts 224°
2026-04-22 17:45 43.00195 -104.41955 39600 ft 437 kts 224°
2026-04-22 17:46 42.95990 -104.47875 39618 ft 437 kts 224°
2026-04-22 17:46 42.91755 -104.53826 39614 ft 437 kts 224°
2026-04-22 17:47 42.87487 -104.59807 39623 ft 437 kts 224°
2026-04-22 17:47 42.83273 -104.65703 39622 ft 437 kts 224°
2026-04-22 17:48 42.79031 -104.71625 39630 ft 437 kts 224°
2026-04-22 17:48 42.74783 -104.77542 39631 ft 437 kts 224°
2026-04-22 17:49 42.70532 -104.83452 39630 ft 437 kts 224°
2026-04-22 17:49 42.66278 -104.89355 39642 ft 437 kts 224°
2026-04-22 17:50 42.62023 -104.95244 39639 ft 436 kts 224°
2026-04-22 17:50 42.57788 -105.01096 39645 ft 433 kts 224°
2026-04-22 17:51 42.53563 -105.06921 39646 ft 433 kts 224°
2026-04-22 17:51 42.49339 -105.12733 39631 ft 433 kts 224°
2026-04-22 17:52 42.45107 -105.18544 39632 ft 433 kts 224°
2026-04-22 17:52 42.40876 -105.24341 39611 ft 433 kts 224°
2026-04-22 17:53 42.36640 -105.30134 39633 ft 432 kts 224°
2026-04-22 17:53 42.32441 -105.35865 39621 ft 426 kts 224°
2026-04-22 17:54 42.28270 -105.41546 39625 ft 425 kts 224°
2026-04-22 17:54 42.24098 -105.47216 39622 ft 425 kts 224°
2026-04-22 17:55 42.20630 -105.51922 39631 ft 426 kts 223°
2026-04-22 17:55 42.15775 -105.58496 39620 ft 426 kts 224°
2026-04-22 17:56 42.11594 -105.64146 39641 ft 426 kts 224°
2026-04-22 17:56 42.07418 -105.69777 39648 ft 423 kts 223°
2026-04-22 17:57 42.03269 -105.75364 39643 ft 421 kts 223°
2026-04-22 17:57 41.99120 -105.80937 39645 ft 422 kts 223°
2026-04-22 17:58 41.94970 -105.86500 39646 ft 422 kts 223°
2026-04-22 17:58 41.90815 -105.92060 39644 ft 422 kts 223°
2026-04-22 17:59 41.86663 -105.97605 39646 ft 420 kts 223°
2026-04-22 17:59 41.82471 -106.03074 39648 ft 421 kts 219°
2026-04-22 18:00 41.78693 -106.07300 39649 ft 423 kts 217°
2026-04-22 18:00 41.73351 -106.13025 39650 ft 423 kts 217°
2026-04-22 18:01 41.68796 -106.18008 39652 ft 423 kts 218°
2026-04-22 18:01 41.64258 -106.23037 39654 ft 424 kts 218°
2026-04-22 18:02 41.59725 -106.28073 39672 ft 424 kts 218°
2026-04-22 18:02 41.55184 -106.33107 39653 ft 424 kts 218°
2026-04-22 18:03 41.50632 -106.38141 39680 ft 428 kts 218°
2026-04-22 18:03 41.46019 -106.43229 39731 ft 432 kts 218°
2026-04-22 18:04 41.41380 -106.48338 39762 ft 432 kts 218°
2026-04-22 18:04 41.36751 -106.53427 39786 ft 431 kts 218°
2026-04-22 18:05 41.32124 -106.58493 39798 ft 431 kts 218°
2026-04-22 18:05 41.27501 -106.63556 39795 ft 431 kts 218°
2026-04-22 18:06 41.22874 -106.68617 39782 ft 431 kts 218°
2026-04-22 18:06 41.18234 -106.73679 39763 ft 435 kts 218°
2026-04-22 18:07 41.14328 -106.77930 39745 ft 438 kts 218°
2026-04-22 18:07 41.08833 -106.83901 39710 ft 436 kts 218°
2026-04-22 18:08 41.04170 -106.88959 39709 ft 437 kts 218°
2026-04-22 18:08 40.99468 -106.94050 39732 ft 437 kts 218°
2026-04-22 18:09 40.94765 -106.99132 39723 ft 436 kts 218°
2026-04-22 18:09 40.90058 -107.04204 39729 ft 437 kts 218°
2026-04-22 18:10 40.85317 -107.09303 39738 ft 440 kts 219°
2026-04-22 18:10 40.80572 -107.14402 39738 ft 440 kts 219°
2026-04-22 18:11 40.75825 -107.19492 39789 ft 439 kts 219°
2026-04-22 18:11 40.71079 -107.24572 39822 ft 440 kts 219°
2026-04-22 18:12 40.66331 -107.29642 39839 ft 440 kts 219°
2026-04-22 18:12 40.62374 -107.33861 39862 ft 440 kts 219°
2026-04-22 18:13 40.56806 -107.39787 39899 ft 440 kts 219°
2026-04-22 18:13 40.52052 -107.44836 39906 ft 439 kts 220°
2026-04-22 18:14 40.47307 -107.49865 39905 ft 438 kts 220°
2026-04-22 18:14 40.42559 -107.54891 39906 ft 438 kts 220°
2026-04-22 18:15 40.37793 -107.59924 39881 ft 442 kts 220°
2026-04-22 18:15 40.32991 -107.64985 39840 ft 443 kts 220°
2026-04-22 18:16 40.28324 -107.69895 39803 ft 443 kts 220°
2026-04-22 18:16 40.23512 -107.74949 39771 ft 444 kts 220°
2026-04-22 18:17 40.18703 -107.79986 39727 ft 442 kts 220°
2026-04-22 18:17 40.13900 -107.85014 39726 ft 444 kts 220°
2026-04-22 18:18 40.09094 -107.90084 39725 ft 444 kts 223°
2026-04-22 18:18 40.06896 -107.92898 39942 ft 443 kts 229°
2026-04-22 18:18 40.05603 -107.94950 39932 ft 442 kts 234°
2026-04-22 18:19 40.01529 -108.02599 39916 ft 442 kts 237°
2026-04-22 18:19 39.98157 -108.09294 39875 ft 441 kts 237°
2026-04-22 18:20 39.95333 -108.14896 39838 ft 442 kts 237°
2026-04-22 18:20 39.91939 -108.21569 39796 ft 442 kts 236°
2026-04-22 18:21 39.88531 -108.28227 39757 ft 442 kts 236°
2026-04-22 18:21 39.85127 -108.34858 39750 ft 439 kts 237°
2026-04-22 18:22 39.81742 -108.41442 39748 ft 437 kts 237°
2026-04-22 18:22 39.78357 -108.48015 39755 ft 437 kts 237°
2026-04-22 18:23 39.74968 -108.54577 39757 ft 437 kts 237°
2026-04-22 18:23 39.71576 -108.61132 39761 ft 437 kts 237°
2026-04-22 18:24 39.66487 -108.70945 39757 ft 437 kts 237°
2026-04-22 18:25 39.61389 -108.80745 39768 ft 435 kts 237°
2026-04-22 18:25 39.58017 -108.87212 39769 ft 431 kts 237°
2026-04-22 18:26 39.52979 -108.96844 39763 ft 429 kts 237°
2026-04-22 18:26 39.49627 -109.03229 39772 ft 429 kts 237°
2026-04-22 18:27 39.46282 -109.09605 39768 ft 428 kts 237°
2026-04-22 18:27 39.42955 -109.15930 39769 ft 427 kts 237°
2026-04-22 18:28 39.39613 -109.22264 39771 ft 426 kts 237°
2026-04-22 18:28 39.36275 -109.28581 39779 ft 426 kts 237°
2026-04-22 18:29 39.32933 -109.34893 39783 ft 426 kts 237°
2026-04-22 18:29 39.29585 -109.41203 39790 ft 426 kts 237°
2026-04-22 18:30 39.24556 -109.50655 39801 ft 429 kts 237°
2026-04-22 18:31 39.21167 -109.56994 39801 ft 428 kts 237°
2026-04-22 18:31 39.17803 -109.63303 39801 ft 426 kts 237°
2026-04-22 18:32 39.14439 -109.69590 39816 ft 426 kts 237°
2026-04-22 18:32 39.11081 -109.75861 39811 ft 425 kts 237°
2026-04-22 18:33 39.07714 -109.82129 39842 ft 426 kts 237°
2026-04-22 18:33 39.04352 -109.88374 39845 ft 424 kts 237°
2026-04-22 18:34 39.00990 -109.94605 39847 ft 424 kts 237°
2026-04-22 18:34 38.97627 -110.00826 39841 ft 424 kts 237°
2026-04-22 18:35 38.94260 -110.07044 39831 ft 424 kts 237°
2026-04-22 18:35 38.90891 -110.13253 39819 ft 424 kts 237°
2026-04-22 18:36 38.87517 -110.19453 39807 ft 423 kts 237°
2026-04-22 18:36 38.84112 -110.25612 39802 ft 424 kts 234°
2026-04-22 18:37 38.80076 -110.31173 39799 ft 427 kts 229°
2026-04-22 18:37 38.75805 -110.36474 39804 ft 428 kts 227°
2026-04-22 18:38 38.71497 -110.41722 39798 ft 428 kts 227°
2026-04-22 18:38 38.67189 -110.46976 39799 ft 428 kts 227°
2026-04-22 18:39 38.60727 -110.54878 39791 ft 428 kts 228°
2026-04-22 18:39 38.56431 -110.60122 39797 ft 426 kts 228°
2026-04-22 18:40 38.54286 -110.62738 39931 ft 426 kts 228°
2026-04-22 18:40 38.52140 -110.65352 39949 ft 426 kts 228°
2026-04-22 18:40 38.47850 -110.70573 39961 ft 426 kts 228°
2026-04-22 18:41 38.43584 -110.75753 39962 ft 426 kts 228°
2026-04-22 18:41 38.39284 -110.80966 39960 ft 426 kts 228°
2026-04-22 18:42 38.34997 -110.86149 39927 ft 423 kts 228°
2026-04-22 18:42 38.30714 -110.91325 39883 ft 421 kts 229°
2026-04-22 18:43 38.26497 -110.96414 39853 ft 420 kts 229°
2026-04-22 18:43 38.22251 -111.01527 39822 ft 420 kts 228°
2026-04-22 18:44 38.18003 -111.06634 39795 ft 420 kts 228°
2026-04-22 18:44 38.13751 -111.11737 39797 ft 420 kts 228°
2026-04-22 18:45 38.09498 -111.16835 39807 ft 420 kts 229°
2026-04-22 18:45 38.05245 -111.21932 39810 ft 421 kts 229°
2026-04-22 18:46 38.00993 -111.27002 39816 ft 418 kts 229°
2026-04-22 18:46 37.96748 -111.32052 39822 ft 418 kts 229°
2026-04-22 18:47 37.92506 -111.37099 39825 ft 418 kts 229°
2026-04-22 18:47 37.88263 -111.42143 39837 ft 418 kts 229°
2026-04-22 18:48 37.84018 -111.47179 39839 ft 419 kts 229°
2026-04-22 18:48 37.79765 -111.52217 39833 ft 419 kts 229°
2026-04-22 18:49 37.75512 -111.57245 39845 ft 419 kts 229°
2026-04-22 18:49 37.71262 -111.62261 39854 ft 418 kts 229°
2026-04-22 18:50 37.67014 -111.67264 39851 ft 418 kts 229°
2026-04-22 18:50 37.62761 -111.72268 39870 ft 418 kts 229°
2026-04-22 18:51 37.58510 -111.77261 39897 ft 418 kts 229°
2026-04-22 18:51 37.54248 -111.82262 39919 ft 418 kts 229°
2026-04-22 18:52 37.50127 -111.87386 39921 ft 413 kts 235°
2026-04-22 18:52 37.46612 -111.93068 39923 ft 409 kts 238°
2026-04-22 18:53 37.43250 -111.98806 39924 ft 406 kts 239°
2026-04-22 18:53 37.39914 -112.04542 39908 ft 406 kts 239°
2026-04-22 18:54 37.36571 -112.10275 39897 ft 407 kts 239°
2026-04-22 18:54 37.33219 -112.15997 39881 ft 407 kts 238°
2026-04-22 18:55 37.29855 -112.21713 39886 ft 407 kts 238°
2026-04-22 18:55 37.26486 -112.27448 39890 ft 408 kts 238°
2026-04-22 18:56 37.23114 -112.33176 39909 ft 408 kts 238°
2026-04-22 18:56 37.19740 -112.38898 39908 ft 408 kts 238°
2026-04-22 18:57 37.16361 -112.44615 39909 ft 408 kts 238°
2026-04-22 18:57 37.12980 -112.50324 39926 ft 409 kts 238°
2026-04-22 18:58 37.09585 -112.56051 39930 ft 409 kts 238°
2026-04-22 18:58 37.06216 -112.61739 39954 ft 409 kts 239°
2026-04-22 18:59 37.02824 -112.67459 39991 ft 409 kts 238°
2026-04-22 18:59 36.99417 -112.73168 40032 ft 409 kts 238°
2026-04-22 19:00 36.96006 -112.78872 40070 ft 409 kts 238°
2026-04-22 19:00 36.92606 -112.84562 40090 ft 408 kts 238°
2026-04-22 19:01 36.89219 -112.90232 40106 ft 407 kts 238°
2026-04-22 19:01 36.85825 -112.95895 40105 ft 407 kts 238°
2026-04-22 19:02 36.82425 -113.01557 40094 ft 408 kts 238°
2026-04-22 19:02 36.79018 -113.07223 40081 ft 409 kts 238°
2026-04-22 19:03 36.75600 -113.12897 40050 ft 409 kts 238°
2026-04-22 19:03 36.72182 -113.18561 40032 ft 409 kts 238°
2026-04-22 19:04 36.69339 -113.23266 39993 ft 409 kts 238°
2026-04-22 19:04 36.65918 -113.28920 39975 ft 409 kts 238°
2026-04-22 19:05 36.62493 -113.34570 40001 ft 409 kts 238°
2026-04-22 19:05 36.59168 -113.40291 39988 ft 407 kts 240°
2026-04-22 19:06 36.55933 -113.46075 39994 ft 407 kts 240°
2026-04-22 19:07 36.51060 -113.54719 39987 ft 407 kts 240°
2026-04-22 19:07 36.47791 -113.60460 39998 ft 407 kts 240°
2026-04-22 19:08 36.44516 -113.66195 39988 ft 407 kts 240°
2026-04-22 19:08 36.41234 -113.71934 39995 ft 408 kts 240°
2026-04-22 19:09 36.37945 -113.77676 39991 ft 408 kts 239°
2026-04-22 19:09 36.34654 -113.83411 39992 ft 408 kts 239°
2026-04-22 19:10 36.31360 -113.89143 39993 ft 408 kts 239°
2026-04-22 19:10 36.28063 -113.94868 39992 ft 408 kts 239°
2026-04-22 19:11 36.24765 -114.00587 39982 ft 408 kts 239°
2026-04-22 19:11 36.21465 -114.06301 39976 ft 407 kts 239°
2026-04-22 19:12 36.18189 -114.11970 39984 ft 408 kts 239°
2026-04-22 19:12 36.14866 -114.17704 39979 ft 407 kts 239°
2026-04-22 19:13 36.11563 -114.23393 39980 ft 407 kts 239°
2026-04-22 19:13 36.08192 -114.28971 39962 ft 411 kts 235°
2026-04-22 19:14 36.04439 -114.34322 39974 ft 413 kts 234°
2026-04-22 19:14 36.00615 -114.39616 39968 ft 413 kts 234°
2026-04-22 19:15 35.96773 -114.44907 39983 ft 414 kts 234°
2026-04-22 19:15 35.92937 -114.50195 39986 ft 413 kts 234°
2026-04-22 19:16 35.89105 -114.55480 40004 ft 413 kts 234°
2026-04-22 19:16 35.85268 -114.60767 39980 ft 414 kts 234°
2026-04-22 19:17 35.81533 -114.65904 40026 ft 414 kts 234°
2026-04-22 19:17 35.77693 -114.71178 40025 ft 413 kts 234°
2026-04-22 19:18 35.73983 -114.76259 40022 ft 413 kts 234°
2026-04-22 19:18 35.70131 -114.81534 40062 ft 414 kts 234°
2026-04-22 19:19 35.66279 -114.86800 40064 ft 414 kts 234°
2026-04-22 19:19 35.62439 -114.92058 40058 ft 413 kts 234°
2026-04-22 19:20 35.58597 -114.97310 40057 ft 413 kts 234°
2026-04-22 19:20 35.54754 -115.02558 40077 ft 413 kts 234°
2026-04-22 19:21 35.50915 -115.07789 40068 ft 412 kts 234°
2026-04-22 19:21 35.47015 -115.12949 40074 ft 413 kts 233°
2026-04-22 19:22 35.43066 -115.18076 40086 ft 413 kts 233°
2026-04-22 19:22 35.39125 -115.23206 40087 ft 414 kts 233°
2026-04-22 19:23 35.35180 -115.28341 40104 ft 414 kts 233°
2026-04-22 19:23 35.31235 -115.33470 40093 ft 413 kts 233°
2026-04-22 19:24 35.27297 -115.38583 40104 ft 412 kts 233°
2026-04-22 19:24 35.23369 -115.43677 40121 ft 411 kts 233°
2026-04-22 19:25 35.19440 -115.48765 40116 ft 411 kts 233°
2026-04-22 19:25 35.15510 -115.53847 40132 ft 411 kts 233°
2026-04-22 19:26 35.11579 -115.58925 40120 ft 411 kts 233°
2026-04-22 19:26 35.07626 -115.63986 40134 ft 412 kts 233°
2026-04-22 19:27 35.03668 -115.69037 40131 ft 412 kts 233°
2026-04-22 19:27 34.99709 -115.74086 40132 ft 412 kts 233°
2026-04-22 19:28 34.95751 -115.79130 40127 ft 411 kts 233°
2026-04-22 19:28 34.91791 -115.84169 40121 ft 412 kts 233°
2026-04-22 19:29 34.87827 -115.89205 40112 ft 412 kts 233°
2026-04-22 19:29 34.83890 -115.94199 40114 ft 411 kts 233°
2026-04-22 19:30 34.80569 -115.98408 40104 ft 412 kts 233°
2026-04-22 19:30 34.75958 -116.04254 40094 ft 412 kts 234°
2026-04-22 19:31 34.72012 -116.09283 39842 ft 408 kts 234°
2026-04-22 19:31 34.70071 -116.11748 39569 ft 400 kts 234°
2026-04-22 19:31 34.68162 -116.14175 39130 ft 396 kts 234°
2026-04-22 19:31 34.66258 -116.16599 38473 ft 397 kts 234°
2026-04-22 19:32 34.64349 -116.19027 37823 ft 396 kts 234°
2026-04-22 19:32 34.62447 -116.21442 37230 ft 395 kts 233°
2026-04-22 19:32 34.60561 -116.23834 36766 ft 390 kts 233°
2026-04-22 19:32 34.58693 -116.26203 36316 ft 387 kts 233°
2026-04-22 19:33 34.56841 -116.28548 35860 ft 383 kts 233°
2026-04-22 19:33 34.55008 -116.30868 35400 ft 380 kts 232°
2026-04-22 19:33 34.53187 -116.33172 34940 ft 377 kts 232°
2026-04-22 19:33 34.51376 -116.35463 34498 ft 375 kts 232°
2026-04-22 19:34 34.49576 -116.37738 34031 ft 373 kts 232°
2026-04-22 19:34 34.47788 -116.39997 33532 ft 370 kts 232°
2026-04-22 19:34 34.46017 -116.42230 33093 ft 366 kts 232°
2026-04-22 19:34 34.44265 -116.44439 32660 ft 362 kts 232°
2026-04-22 19:35 34.42587 -116.46677 32225 ft 355 kts 236°
2026-04-22 19:35 34.41174 -116.49094 31794 ft 349 kts 243°
2026-04-22 19:35 34.40401 -116.50785 31523 ft 345 kts 245°
2026-04-22 19:35 34.38970 -116.54243 30963 ft 343 kts 246°
2026-04-22 19:36 34.37914 -116.56830 30526 ft 342 kts 246°
2026-04-22 19:36 34.36861 -116.59399 30119 ft 342 kts 246°
2026-04-22 19:36 34.35799 -116.61983 29656 ft 341 kts 245°
2026-04-22 19:36 34.34742 -116.64549 29232 ft 339 kts 245°
2026-04-22 19:37 34.33692 -116.67094 28804 ft 337 kts 245°
2026-04-22 19:37 34.32659 -116.69624 28369 ft 334 kts 246°
2026-04-22 19:37 34.31651 -116.72137 27932 ft 331 kts 246°
2026-04-22 19:37 34.30672 -116.74593 27502 ft 326 kts 246°
2026-04-22 19:38 34.29693 -116.77060 27097 ft 324 kts 246°
2026-04-22 19:38 34.28707 -116.79506 26668 ft 323 kts 245°
2026-04-22 19:38 34.27721 -116.81944 26238 ft 322 kts 246°
2026-04-22 19:38 34.26745 -116.84368 25805 ft 320 kts 245°
2026-04-22 19:39 34.25773 -116.86773 25377 ft 317 kts 245°
2026-04-22 19:39 34.24807 -116.89159 24955 ft 315 kts 245°
2026-04-22 19:39 34.23845 -116.91536 24523 ft 314 kts 245°
2026-04-22 19:39 34.22889 -116.93897 24095 ft 312 kts 245°
2026-04-22 19:40 34.21939 -116.96246 23657 ft 311 kts 245°
2026-04-22 19:40 34.21059 -116.98618 23189 ft 308 kts 250°
2026-04-22 19:40 34.20355 -117.01054 22774 ft 307 kts 252°
2026-04-22 19:40 34.19694 -117.03499 22341 ft 307 kts 252°
2026-04-22 19:41 34.19038 -117.05941 21923 ft 304 kts 252°
2026-04-22 19:41 34.18382 -117.08366 21493 ft 302 kts 252°
2026-04-22 19:41 34.17732 -117.10770 21080 ft 300 kts 252°
2026-04-22 19:41 34.17084 -117.13166 20666 ft 300 kts 253°
2026-04-22 19:42 34.16439 -117.15554 20232 ft 298 kts 252°
2026-04-22 19:42 34.15795 -117.17922 19835 ft 297 kts 252°
2026-04-22 19:42 34.15146 -117.20280 19474 ft 296 kts 253°
2026-04-22 19:42 34.14496 -117.22635 19026 ft 296 kts 253°
2026-04-22 19:43 34.13196 -117.27353 18156 ft 296 kts 253°
2026-04-22 19:43 34.12546 -117.29710 17719 ft 295 kts 253°
2026-04-22 19:43 34.11899 -117.32052 17297 ft 294 kts 253°
2026-04-22 19:44 34.11250 -117.34402 16733 ft 297 kts 253°
2026-04-22 19:44 34.10596 -117.36772 16246 ft 298 kts 253°
2026-04-22 19:44 34.09962 -117.39148 15812 ft 297 kts 255°
2026-04-22 19:44 34.09371 -117.41538 15386 ft 297 kts 255°
2026-04-22 19:45 34.08785 -117.43924 14956 ft 296 kts 255°
2026-04-22 19:45 34.08196 -117.46303 14547 ft 296 kts 255°
2026-04-22 19:45 34.07603 -117.48680 14120 ft 296 kts 255°
2026-04-22 19:45 34.07012 -117.51052 13671 ft 295 kts 255°
2026-04-22 19:46 34.06414 -117.53410 13258 ft 293 kts 255°
2026-04-22 19:46 34.05815 -117.55746 12828 ft 291 kts 255°
2026-04-22 19:46 34.05217 -117.58073 12413 ft 289 kts 255°
2026-04-22 19:46 34.04634 -117.60349 11996 ft 288 kts 255°
2026-04-22 19:47 34.04045 -117.62649 11603 ft 286 kts 255°
2026-04-22 19:47 34.03451 -117.64968 11193 ft 285 kts 255°
2026-04-22 19:47 34.03063 -117.66479 10919 ft 285 kts 255°
2026-04-22 19:47 34.02319 -117.69504 10358 ft 283 kts 259°
2026-04-22 19:48 34.01995 -117.71846 10077 ft 280 kts 264°
2026-04-22 19:48 34.01770 -117.74131 9901 ft 269 kts 265°
2026-04-22 19:48 34.01560 -117.76350 9738 ft 267 kts 265°
2026-04-22 19:48 34.01352 -117.78568 9424 ft 266 kts 265°
2026-04-22 19:49 34.01139 -117.80792 9067 ft 267 kts 265°
2026-04-22 19:49 34.00923 -117.83014 8698 ft 267 kts 265°
2026-04-22 19:49 34.00708 -117.85234 8332 ft 267 kts 265°
2026-04-22 19:49 34.00492 -117.87458 7962 ft 267 kts 265°
2026-04-22 19:50 34.00272 -117.89679 7578 ft 267 kts 265°
2026-04-22 19:50 34.00054 -117.91893 7218 ft 266 kts 265°
2026-04-22 19:50 33.99845 -117.94107 6855 ft 266 kts 266°
2026-04-22 19:50 33.99719 -117.95601 6613 ft 265 kts 266°
2026-04-22 19:51 33.99512 -117.97810 6230 ft 265 kts 265°
2026-04-22 19:51 33.99293 -118.00004 5962 ft 263 kts 264°
2026-04-22 19:51 33.99079 -118.02163 5518 ft 262 kts 264°
2026-04-22 19:51 33.98866 -118.04333 5153 ft 260 kts 264°
2026-04-22 19:52 33.98656 -118.06490 4915 ft 260 kts 264°
2026-04-22 19:52 33.98445 -118.08641 4550 ft 257 kts 264°
2026-04-22 19:52 33.98239 -118.10752 4274 ft 250 kts 263°
2026-04-22 19:52 33.98034 -118.12804 4033 ft 243 kts 263°
2026-04-22 19:53 33.97830 -118.14796 3790 ft 236 kts 262°
2026-04-22 19:53 33.97630 -118.16732 3563 ft 230 kts 262°
2026-04-22 19:53 33.97433 -118.18624 3320 ft 225 kts 261°
2026-04-22 19:53 33.97241 -118.20454 3162 ft 215 kts 262°
2026-04-22 19:54 33.97060 -118.22205 3015 ft 205 kts 261°
2026-04-22 19:54 33.96888 -118.23863 2844 ft 196 kts 261°
2026-04-22 19:54 33.96725 -118.25461 2584 ft 190 kts 261°
2026-04-22 19:54 33.96564 -118.27020 2315 ft 184 kts 261°
2026-04-22 19:55 33.96411 -118.28514 2068 ft 174 kts 262°
2026-04-22 19:55 33.96270 -118.29900 1838 ft 160 kts 261°
2026-04-22 19:55 33.96137 -118.31198 1637 ft 151 kts 261°
2026-04-22 19:55 33.96012 -118.32412 1429 ft 141 kts 259°
2026-04-22 19:56 33.95894 -118.33548 1246 ft 134 kts 262°
2026-04-22 19:56 33.95780 -118.34665 1060 ft 135 kts 260°
2026-04-22 19:56 33.95664 -118.35786 866 ft 133 kts 262°
2026-04-22 19:56 33.95552 -118.36877 679 ft 130 kts 262°
2026-04-22 19:57 33.95453 -118.37941 486 ft 126 kts 259°
2026-04-22 19:57 33.95337 -118.38991 320 ft 126 kts 260°
2026-04-22 19:57 33.95227 -118.40044 160 ft 127 kts 260°
2026-04-22 19:57 33.95121 -118.41067 100 ft 114 kts 263°
2026-04-22 19:58 33.95045 -118.41823 102 ft 67 kts 263°
2026-04-22 19:58 33.95007 -118.42191 101 ft 28 kts 263°
2026-04-22 19:58 33.94979 -118.42411 102 ft 24 kts 255°
2026-04-22 19:58 33.94928 -118.42555 100 ft 14 kts 240°
2026-04-22 19:59 33.94873 -118.42648 105 ft 14 kts 229°
2026-04-22 20:00 33.94660 -118.42451 103 ft 20 kts 84°
2026-04-22 20:00 33.94679 -118.42268 100 ft 24 kts 83°
2026-04-22 20:01 33.94701 -118.42057 101 ft 25 kts 83°
2026-04-22 20:01 33.94720 -118.41862 100 ft 21 kts 83°
2026-04-22 20:01 33.94737 -118.41690 101 ft 19 kts 83°
2026-04-22 20:01 33.94753 -118.41531 100 ft 13 kts 83°
2026-04-22 20:02 33.94764 -118.41439 102 ft 11 kts 77°
2026-04-22 20:02 33.94786 -118.41336 100 ft 15 kts 82°
2026-04-22 20:02 33.94801 -118.41197 103 ft 19 kts 83°
2026-04-22 20:02 33.94818 -118.41037 104 ft 18 kts 83°
2026-04-22 20:03 33.94828 -118.40941 103 ft 11 kts 83°
2026-04-22 20:03 33.94820 -118.40888 101 ft 6 kts 134°
2026-04-22 20:03 33.94774 -118.40894 104 ft 9 kts 212°
2026-04-22 20:03 33.94706 -118.40909 100 ft 12 kts 176°
2026-04-22 20:04 33.94619 -118.40898 100 ft 13 kts 173°
2026-04-22 20:04 33.94568 -118.40892 99 ft 3 kts 182°
2026-04-22 20:04 33.94551 -118.40909 101 ft 3 kts 239°
2026-04-22 20:04 33.94547 -118.40948 101 ft 6 kts 263°
2026-04-22 20:05 33.94543 -118.40987 102 ft 2 kts 263°
2026-04-22 20:05 33.94541 -118.41004 101 ft 1 kts 263°
2026-04-22 20:05 33.94541 -118.41005 101 ft 0 kts 263°